Time,TemperatureF,DewpointF,PressureIn,WindDirection,WindDirectionDegrees,WindSpeedMPH,WindSpeedGustMPH,Humidity,HourlyPrecipIn,Conditions,Clouds,dailyrainin,SolarRadiationWatts/m^2,SoftwareType,DateUTC
2013-01-05 00:00:00,29.7,20.5,29.96,West,277,0.0,4.0,68,0.00,,---,0.00,0.00,VWS V14.01,2013-01-05 05:00:00,
2013-01-05 00:01:00,29.7,20.5,29.96,West,277,0.0,4.0,68,0.00,,---,0.00,0.00,VWS V14.01,2013-01-05 05:01:00,
2013-01-05 00:05:00,29.7,20.1,29.96,West,278,0.0,1.0,67,0.00,,---,0.00,0.00,VWS V14.01,2013-01-05 05:05:00,
2013-01-05 00:06:00,29.7,20.5,29.96,West,278,0.0,1.0,68,0.00,,---,0.00,0.00,VWS V14.01,2013-01-05 05:06:00,
2013-01-05 00:10:00,29.6,20.0,29.96,WSW,242,0.0,3.0,67,0.00,,---,0.00,0.00,VWS V14.01,2013-01-05 05:10:00,
2013-01-05 00:11:00,29.6,20.4,29.96,WSW,242,0.0,3.0,68,0.00,,---,0.00,0.00,VWS V14.01,2013-01-05 05:11:00,
2013-01-05 00:15:00,29.6,20.4,29.96,SSE,151,2.0,3.0,68,0.00,,---,0.00,0.00,VWS V14.01,2013-01-05 05:15:00,
2013-01-05 00:16:00,29.6,20.0,29.96,NW,306,1.0,3.0,67,0.00,,---,0.00,0.00,VWS V14.01,2013-01-05 05:16:00,
2013-01-05 00:20:00,29.5,19.9,29.96,West,275,0.0,4.0,67,0.00,,---,0.00,0.00,VWS V14.01,2013-01-05 05:20:00,
2013-01-05 00:21:00,29.5,19.9,29.96,West,279,0.0,1.0,67,0.00,,---,0.00,0.00,VWS V14.01,2013-01-05 05:21:00,
2013-01-05 00:25:00,29.6,20.4,29.96,SW,233,4.0,4.0,68,0.00,,---,0.00,0.00,VWS V14.01,2013-01-05 05:25:00,
2013-01-05 00:26:00,29.6,19.6,29.97,West,269,1.0,4.0,66,0.00,,---,0.00,0.00,VWS V14.01,2013-01-05 05:26:00,
2013-01-05 00:30:00,29.6,19.6,29.97,West,280,0.0,4.0,66,0.00,,---,0.00,0.00,VWS V14.01,2013-01-05 05:30:00,
2013-01-05 00:31:00,29.6,19.6,29.97,SE,137,2.0,4.0,66,0.00,,---,0.00,0.00,VWS V14.01,2013-01-05 05:31:00,
2013-01-05 00:35:00,29.7,19.8,29.97,NNE,14,2.0,4.0,66,0.00,,---,0.00,0.00,VWS V14.01,2013-01-05 05:35:00,
2013-01-05 00:36:00,29.7,19.8,29.97,NNE,15,0.0,4.0,66,0.00,,---,0.00,0.00,VWS V14.01,2013-01-05 05:36:00,
2013-01-05 00:37:00,29.7,19.8,29.97,SW,233,3.0,4.0,66,0.00,,---,0.00,0.00,VWS V14.01,2013-01-05 05:37:00,
2013-01-05 00:41:00,29.7,19.8,29.96,SW,227,0.0,4.0,66,0.00,,---,0.00,0.00,VWS V14.01,2013-01-05 05:41:00,
2013-01-05 00:42:00,29.7,19.8,29.97,SW,229,2.0,2.0,66,0.00,,---,0.00,0.00,VWS V14.01,2013-01-05 05:42:00,
2013-01-05 00:46:00,29.8,19.8,29.97,SW,223,1.0,4.0,66,0.00,,---,0.00,0.00,VWS V14.01,2013-01-05 05:46:00,
2013-01-05 00:47:00,29.8,19.8,29.97,NW,307,0.0,4.0,66,0.00,,---,0.00,0.00,VWS V14.01,2013-01-05 05:47:00,
2013-01-05 00:51:00,29.9,19.9,29.97,WNW,294,1.0,4.0,66,0.00,,---,0.00,0.00,VWS V14.01,2013-01-05 05:51:00,
2013-01-05 00:52:00,29.9,19.9,29.97,WNW,294,0.0,0.0,66,0.00,,---,0.00,0.00,VWS V14.01,2013-01-05 05:52:00,
2013-01-05 00:56:00,29.9,19.6,29.97,WSW,247,0.0,7.0,65,0.00,,---,0.00,0.00,VWS V14.01,2013-01-05 05:56:00,
2013-01-05 00:57:00,29.9,19.6,29.97,West,263,0.0,7.0,65,0.00,,---,0.00,0.00,VWS V14.01,2013-01-05 05:57:00,
2013-01-05 01:01:00,30.0,19.7,29.97,NW,317,1.0,7.0,65,0.00,,---,0.00,0.00,VWS V14.01,2013-01-05 06:01:00,
2013-01-05 01:02:00,30.0,19.7,29.97,SW,225,1.0,4.0,65,0.00,,---,0.00,0.00,VWS V14.01,2013-01-05 06:02:00,
2013-01-05 01:06:00,30.1,19.4,29.97,NNW,340,0.0,6.0,64,0.00,,---,0.00,0.00,VWS V14.01,2013-01-05 06:06:00,
2013-01-05 01:07:00,30.1,19.8,29.97,SW,226,0.0,6.0,65,0.00,,---,0.00,0.00,VWS V14.01,2013-01-05 06:07:00,
2013-01-05 01:11:00,30.1,20.1,29.97,SW,226,0.0,0.0,66,0.00,,---,0.00,0.00,VWS V14.01,2013-01-05 06:11:00,
2013-01-05 01:12:00,30.1,19.8,29.97,SW,226,0.0,0.0,65,0.00,,---,0.00,0.00,VWS V14.01,2013-01-05 06:12:00,
2013-01-05 01:16:00,30.1,19.4,29.97,WSW,242,0.0,5.0,64,0.00,,---,0.00,0.00,VWS V14.01,2013-01-05 06:16:00,
2013-01-05 01:17:00,30.1,19.8,29.98,West,266,0.0,5.0,65,0.00,,---,0.00,0.00,VWS V14.01,2013-01-05 06:17:00,
2013-01-05 01:21:00,30.1,19.8,29.98,NNE,32,0.0,1.0,65,0.00,,---,0.00,0.00,VWS V14.01,2013-01-05 06:21:00,
2013-01-05 01:22:00,30.1,19.8,29.98,NNE,32,0.0,1.0,65,0.00,,---,0.00,0.00,VWS V14.01,2013-01-05 06:22:00,
2013-01-05 01:26:00,30.1,20.1,29.98,NE,44,0.0,2.0,66,0.00,,---,0.00,0.00,VWS V14.01,2013-01-05 06:26:00,
2013-01-05 01:27:00,30.1,20.1,29.98,West,267,0.0,2.0,66,0.00,,---,0.00,0.00,VWS V14.01,2013-01-05 06:27:00,
2013-01-05 01:31:00,29.9,19.6,29.98,NW,311,0.0,1.0,65,0.00,,---,0.00,0.00,VWS V14.01,2013-01-05 06:31:00,
2013-01-05 01:33:00,29.9,19.9,29.98,SW,233,1.0,1.0,66,0.00,,---,0.00,0.00,VWS V14.01,2013-01-05 06:33:00,
2013-01-05 01:36:00,29.8,19.5,29.98,NNW,336,3.0,3.0,65,0.00,,---,0.00,0.00,VWS V14.01,2013-01-05 06:36:00,
2013-01-05 01:37:00,29.9,19.6,29.98,NNW,346,0.0,3.0,65,0.00,,---,0.00,0.00,VWS V14.01,2013-01-05 06:37:00,
2013-01-05 01:38:00,29.8,19.5,29.98,WSW,257,0.0,3.0,65,0.00,,---,0.00,0.00,VWS V14.01,2013-01-05 06:38:00,
2013-01-05 01:41:00,29.9,19.2,29.98,West,272,0.0,4.0,64,0.00,,---,0.00,0.00,VWS V14.01,2013-01-05 06:41:00,
2013-01-05 01:42:00,29.9,19.2,29.98,SW,232,2.0,4.0,64,0.00,,---,0.00,0.00,VWS V14.01,2013-01-05 06:42:00,
2013-01-05 01:43:00,29.9,19.2,29.98,SW,214,1.0,4.0,64,0.00,,---,0.00,0.00,VWS V14.01,2013-01-05 06:43:00,
2013-01-05 01:47:00,30.0,19.7,29.98,WSW,241,0.0,5.0,65,0.00,,---,0.00,0.00,VWS V14.01,2013-01-05 06:47:00,
2013-01-05 01:48:00,30.0,19.7,29.99,NNW,327,1.0,5.0,65,0.00,,---,0.00,0.00,VWS V14.01,2013-01-05 06:48:00,
2013-01-05 01:52:00,30.0,19.7,29.99,NW,314,1.0,1.0,65,0.00,,---,0.00,0.00,VWS V14.01,2013-01-05 06:52:00,
2013-01-05 01:53:00,30.0,19.7,29.99,North,355,0.0,1.0,65,0.00,,---,0.00,0.00,VWS V14.01,2013-01-05 06:53:00,
2013-01-05 01:57:00,30.0,19.7,29.99,SW,227,0.0,2.0,65,0.00,,---,0.00,0.00,VWS V14.01,2013-01-05 06:57:00,
2013-01-05 01:58:00,30.0,19.7,29.99,NW,314,0.0,2.0,65,0.00,,---,0.00,0.00,VWS V14.01,2013-01-05 06:58:00,
2013-01-05 02:02:00,29.9,19.6,29.99,WSW,238,0.0,1.0,65,0.00,,---,0.00,0.00,VWS V14.01,2013-01-05 07:02:00,
2013-01-05 02:03:00,29.9,19.2,29.99,NNW,327,0.0,2.0,64,0.00,,---,0.00,0.00,VWS V14.01,2013-01-05 07:03:00,
2013-01-05 02:04:00,29.9,19.2,29.99,WNW,282,0.0,2.0,64,0.00,,---,0.00,0.00,VWS V14.01,2013-01-05 07:04:00,
2013-01-05 02:07:00,29.9,19.6,30.00,NNW,346,0.0,3.0,65,0.00,,---,0.00,0.00,VWS V14.01,2013-01-05 07:07:00,
2013-01-05 02:08:00,29.9,19.6,30.00,NNW,346,0.0,3.0,65,0.00,,---,0.00,0.00,VWS V14.01,2013-01-05 07:08:00,
2013-01-05 02:09:00,30.0,19.7,30.00,NNW,346,0.0,3.0,65,0.00,,---,0.00,0.00,VWS V14.01,2013-01-05 07:09:00,
2013-01-05 02:12:00,29.9,19.6,30.00,WSW,243,2.0,2.0,65,0.00,,---,0.00,0.00,VWS V14.01,2013-01-05 07:12:00,
2013-01-05 02:13:00,29.9,19.6,30.00,WSW,243,0.0,2.0,65,0.00,,---,0.00,0.00,VWS V14.01,2013-01-05 07:13:00,
2013-01-05 02:14:00,29.9,19.6,30.00,SW,225,0.0,2.0,65,0.00,,---,0.00,0.00,VWS V14.01,2013-01-05 07:14:00,
2013-01-05 02:17:00,29.9,19.6,30.00,WSW,246,0.0,2.0,65,0.00,,---,0.00,0.00,VWS V14.01,2013-01-05 07:17:00,
2013-01-05 02:18:00,29.9,19.6,30.00,WSW,246,0.0,2.0,65,0.00,,---,0.00,0.00,VWS V14.01,2013-01-05 07:18:00,
2013-01-05 02:19:00,29.9,19.6,30.00,WSW,246,0.0,2.0,65,0.00,,---,0.00,0.00,VWS V14.01,2013-01-05 07:19:00,
2013-01-05 02:23:00,29.9,19.6,30.00,NNW,329,0.0,4.0,65,0.00,,---,0.00,0.00,VWS V14.01,2013-01-05 07:23:00,
2013-01-05 02:24:00,29.9,19.9,30.00,WNW,286,0.0,4.0,66,0.00,,---,0.00,0.00,VWS V14.01,2013-01-05 07:24:00,
2013-01-05 02:28:00,29.8,19.8,30.00,WNW,289,0.0,4.0,66,0.00,,---,0.00,0.00,VWS V14.01,2013-01-05 07:28:00,
2013-01-05 02:29:00,29.8,19.5,30.00,WNW,289,0.0,4.0,65,0.00,,---,0.00,0.00,VWS V14.01,2013-01-05 07:29:00,
2013-01-05 02:33:00,29.7,19.8,30.01,WSW,249,0.0,0.0,66,0.00,,---,0.00,0.00,VWS V14.01,2013-01-05 07:33:00,
2013-01-05 02:34:00,29.7,20.1,30.01,WSW,250,0.0,0.0,67,0.00,,---,0.00,0.00,VWS V14.01,2013-01-05 07:34:00,
2013-01-05 02:38:00,29.7,19.8,30.01,SW,236,2.0,3.0,66,0.00,,---,0.00,0.00,VWS V14.01,2013-01-05 07:38:00,
2013-01-05 02:39:00,29.6,19.6,30.01,WNW,290,0.0,3.0,66,0.00,,---,0.00,0.00,VWS V14.01,2013-01-05 07:39:00,
2013-01-05 02:43:00,29.6,19.6,30.01,West,272,0.0,1.0,66,0.00,,---,0.00,0.00,VWS V14.01,2013-01-05 07:43:00,
2013-01-05 02:44:00,29.6,19.6,30.01,West,272,0.0,1.0,66,0.00,,---,0.00,0.00,VWS V14.01,2013-01-05 07:44:00,
2013-01-05 02:48:00,29.5,19.9,30.01,WSW,244,0.0,2.0,67,0.00,,---,0.00,0.00,VWS V14.01,2013-01-05 07:48:00,
2013-01-05 02:49:00,29.5,19.9,30.01,WSW,244,0.0,2.0,67,0.00,,---,0.00,0.00,VWS V14.01,2013-01-05 07:49:00,
2013-01-05 02:53:00,29.4,19.8,30.02,WSW,240,2.0,3.0,67,0.00,,---,0.00,0.00,VWS V14.01,2013-01-05 07:53:00,
2013-01-05 02:54:00,29.4,19.8,30.02,SSE,168,0.0,3.0,67,0.00,,---,0.00,0.00,VWS V14.01,2013-01-05 07:54:00,
2013-01-05 02:58:00,29.3,20.1,30.02,South,180,0.0,3.0,68,0.00,,---,0.00,0.00,VWS V14.01,2013-01-05 07:58:00,
2013-01-05 02:59:00,29.2,20.0,30.02,South,180,0.0,3.0,68,0.00,,---,0.00,0.00,VWS V14.01,2013-01-05 07:59:00,
2013-01-05 03:04:00,29.1,19.9,30.02,South,182,1.0,1.0,68,0.00,,---,0.00,0.00,VWS V14.01,2013-01-05 08:04:00,
2013-01-05 03:09:00,29.0,19.8,30.02,West,263,0.0,1.0,68,0.00,,---,0.00,0.00,VWS V14.01,2013-01-05 08:09:00,
2013-01-05 03:10:00,29.0,19.8,30.03,West,263,0.0,1.0,68,0.00,,---,0.00,0.00,VWS V14.01,2013-01-05 08:10:00,
2013-01-05 03:14:00,28.9,20.0,30.03,SW,234,0.0,2.0,69,0.00,,---,0.00,0.00,VWS V14.01,2013-01-05 08:14:00,
2013-01-05 03:15:00,28.9,19.7,30.03,SW,234,0.0,2.0,68,0.00,,---,0.00,0.00,VWS V14.01,2013-01-05 08:15:00,
2013-01-05 03:19:00,28.8,19.9,30.03,WSW,238,0.0,2.0,69,0.00,,---,0.00,0.00,VWS V14.01,2013-01-05 08:19:00,
2013-01-05 03:20:00,28.8,19.9,30.03,WSW,238,0.0,2.0,69,0.00,,---,0.00,0.00,VWS V14.01,2013-01-05 08:20:00,
2013-01-05 03:24:00,28.8,19.6,30.03,WSW,238,0.0,1.0,68,0.00,,---,0.00,0.00,VWS V14.01,2013-01-05 08:24:00,
2013-01-05 03:25:00,28.8,19.9,30.03,WSW,238,0.0,1.0,69,0.00,,---,0.00,0.00,VWS V14.01,2013-01-05 08:25:00,
2013-01-05 03:29:00,28.8,19.9,30.03,SW,235,0.0,2.0,69,0.00,,---,0.00,0.00,VWS V14.01,2013-01-05 08:29:00,
2013-01-05 03:30:00,28.8,20.3,30.03,SW,235,0.0,2.0,70,0.00,,---,0.00,0.00,VWS V14.01,2013-01-05 08:30:00,
2013-01-05 03:34:00,28.7,20.2,30.03,WSW,252,1.0,1.0,70,0.00,,---,0.00,0.00,VWS V14.01,2013-01-05 08:34:00,
2013-01-05 03:35:00,28.8,20.3,30.03,WSW,252,0.0,1.0,70,0.00,,---,0.00,0.00,VWS V14.01,2013-01-05 08:35:00,
2013-01-05 03:39:00,28.8,20.3,30.03,SW,229,0.0,2.0,70,0.00,,---,0.00,0.00,VWS V14.01,2013-01-05 08:39:00,
2013-01-05 03:40:00,28.8,20.3,30.03,SW,229,0.0,2.0,70,0.00,,---,0.00,0.00,VWS V14.01,2013-01-05 08:40:00,
2013-01-05 03:44:00,28.8,20.3,30.03,SW,229,0.0,1.0,70,0.00,,---,0.00,0.00,VWS V14.01,2013-01-05 08:44:00,
2013-01-05 03:45:00,28.8,20.3,30.03,SW,229,0.0,1.0,70,0.00,,---,0.00,0.00,VWS V14.01,2013-01-05 08:45:00,
2013-01-05 03:49:00,28.9,20.4,30.03,West,259,0.0,4.0,70,0.00,,---,0.00,0.00,VWS V14.01,2013-01-05 08:49:00,
2013-01-05 03:50:00,28.9,20.4,30.03,West,259,0.0,4.0,70,0.00,,---,0.00,0.00,VWS V14.01,2013-01-05 08:50:00,
2013-01-05 03:54:00,29.0,20.5,30.03,West,268,0.0,0.0,70,0.00,,---,0.00,0.00,VWS V14.01,2013-01-05 08:54:00,
2013-01-05 03:55:00,28.9,20.4,30.03,West,268,0.0,0.0,70,0.00,,---,0.00,0.00,VWS V14.01,2013-01-05 08:55:00,
2013-01-05 03:59:00,29.0,20.5,30.04,West,268,0.0,1.0,70,0.00,,---,0.00,0.00,VWS V14.01,2013-01-05 08:59:00,
2013-01-05 04:00:00,29.0,20.5,30.03,West,268,0.0,1.0,70,0.00,,---,0.00,0.00,VWS V14.01,2013-01-05 09:00:00,
2013-01-05 04:04:00,29.0,20.8,30.03,West,268,0.0,0.0,71,0.00,,---,0.00,0.00,VWS V14.01,2013-01-05 09:04:00,
2013-01-05 04:05:00,29.0,20.8,30.04,West,268,0.0,0.0,71,0.00,,---,0.00,0.00,VWS V14.01,2013-01-05 09:05:00,
2013-01-05 04:06:00,29.0,20.5,30.04,West,268,0.0,0.0,70,0.00,,---,0.00,0.00,VWS V14.01,2013-01-05 09:06:00,
2013-01-05 04:10:00,29.0,20.8,30.03,West,261,0.0,2.0,71,0.00,,---,0.00,0.00,VWS V14.01,2013-01-05 09:10:00,
2013-01-05 04:11:00,28.9,20.7,30.03,West,261,0.0,2.0,71,0.00,,---,0.00,0.00,VWS V14.01,2013-01-05 09:11:00,
2013-01-05 04:15:00,28.9,20.7,30.04,West,261,0.0,0.0,71,0.00,,---,0.00,0.00,VWS V14.01,2013-01-05 09:15:00,
2013-01-05 04:16:00,28.9,20.4,30.04,West,261,0.0,0.0,70,0.00,,---,0.00,0.00,VWS V14.01,2013-01-05 09:16:00,
2013-01-05 04:20:00,28.9,20.7,30.04,SW,222,0.0,1.0,71,0.00,,---,0.00,0.00,VWS V14.01,2013-01-05 09:20:00,
2013-01-05 04:21:00,28.9,20.4,30.04,SW,222,1.0,1.0,70,0.00,,---,0.00,0.00,VWS V14.01,2013-01-05 09:21:00,
2013-01-05 04:25:00,28.9,20.7,30.04,SW,222,0.0,1.0,71,0.00,,---,0.00,0.00,VWS V14.01,2013-01-05 09:25:00,
2013-01-05 04:26:00,28.9,20.7,30.04,SW,222,0.0,1.0,71,0.00,,---,0.00,0.00,VWS V14.01,2013-01-05 09:26:00,
2013-01-05 04:30:00,28.9,20.4,30.04,West,261,0.0,2.0,70,0.00,,---,0.00,0.00,VWS V14.01,2013-01-05 09:30:00,
2013-01-05 04:31:00,28.9,20.4,30.04,West,261,0.0,0.0,70,0.00,,---,0.00,0.00,VWS V14.01,2013-01-05 09:31:00,
2013-01-05 04:35:00,28.9,20.7,30.04,West,261,0.0,0.0,71,0.00,,---,0.00,0.00,VWS V14.01,2013-01-05 09:35:00,
2013-01-05 04:36:00,28.9,20.7,30.04,West,261,0.0,0.0,71,0.00,,---,0.00,0.00,VWS V14.01,2013-01-05 09:36:00,
2013-01-05 04:40:00,28.8,20.6,30.04,West,261,0.0,0.0,71,0.00,,---,0.00,0.00,VWS V14.01,2013-01-05 09:40:00,
2013-01-05 04:41:00,28.8,20.6,30.04,West,261,0.0,0.0,71,0.00,,---,0.00,0.00,VWS V14.01,2013-01-05 09:41:00,
2013-01-05 04:45:00,28.7,20.5,30.04,West,261,0.0,0.0,71,0.00,,---,0.00,0.00,VWS V14.01,2013-01-05 09:45:00,
2013-01-05 04:46:00,28.7,20.5,30.04,West,261,0.0,1.0,71,0.00,,---,0.00,0.00,VWS V14.01,2013-01-05 09:46:00,
2013-01-05 04:50:00,28.7,20.5,30.05,West,274,0.0,1.0,71,0.00,,---,0.00,0.00,VWS V14.01,2013-01-05 09:50:00,
2013-01-05 04:51:00,28.6,20.4,30.05,West,274,0.0,1.0,71,0.00,,---,0.00,0.00,VWS V14.01,2013-01-05 09:51:00,
2013-01-05 04:55:00,28.6,20.7,30.05,West,274,0.0,0.0,72,0.00,,---,0.00,0.00,VWS V14.01,2013-01-05 09:55:00,
2013-01-05 04:56:00,28.5,20.6,30.05,West,274,0.0,0.0,72,0.00,,---,0.00,0.00,VWS V14.01,2013-01-05 09:56:00,
2013-01-05 05:00:00,28.4,20.5,30.05,West,274,0.0,0.0,72,0.00,,---,0.00,0.00,VWS V14.01,2013-01-05 10:00:00,
2013-01-05 05:01:00,28.4,20.5,30.05,West,274,0.0,0.0,72,0.00,,---,0.00,0.00,VWS V14.01,2013-01-05 10:01:00,
2013-01-05 05:02:00,28.4,20.5,30.05,West,274,0.0,0.0,72,0.00,,---,0.00,0.00,VWS V14.01,2013-01-05 10:02:00,
2013-01-05 05:06:00,28.3,20.4,30.05,West,274,0.0,0.0,72,0.00,,---,0.00,0.00,VWS V14.01,2013-01-05 10:06:00,
2013-01-05 05:07:00,28.3,20.4,30.06,West,274,0.0,0.0,72,0.00,,---,0.00,0.00,VWS V14.01,2013-01-05 10:07:00,
2013-01-05 05:10:00,28.2,20.4,30.06,West,274,0.0,0.0,72,0.00,,---,0.00,0.00,VWS V14.01,2013-01-05 10:10:00,
2013-01-05 05:11:00,28.2,20.4,30.06,West,274,0.0,0.0,72,0.00,,---,0.00,0.00,VWS V14.01,2013-01-05 10:11:00,
2013-01-05 05:12:00,28.1,20.6,30.06,West,274,0.0,0.0,73,0.00,,---,0.00,0.00,VWS V14.01,2013-01-05 10:12:00,
2013-01-05 05:15:00,28.0,20.5,30.06,West,274,0.0,0.0,73,0.00,,---,0.00,0.00,VWS V14.01,2013-01-05 10:15:00,
2013-01-05 05:16:00,28.0,20.5,30.06,West,274,0.0,0.0,73,0.00,,---,0.00,0.00,VWS V14.01,2013-01-05 10:16:00,
2013-01-05 05:17:00,28.0,20.5,30.06,West,274,0.0,0.0,73,0.00,,---,0.00,0.00,VWS V14.01,2013-01-05 10:17:00,
2013-01-05 05:21:00,27.9,20.4,30.06,West,274,0.0,0.0,73,0.00,,---,0.00,0.00,VWS V14.01,2013-01-05 10:21:00,
2013-01-05 05:22:00,27.9,20.4,30.06,West,274,0.0,0.0,73,0.00,,---,0.00,0.00,VWS V14.01,2013-01-05 10:22:00,
2013-01-05 05:26:00,27.8,20.3,30.07,West,274,0.0,1.0,73,0.00,,---,0.00,0.00,VWS V14.01,2013-01-05 10:26:00,
2013-01-05 05:27:00,27.8,20.3,30.07,West,273,0.0,1.0,73,0.00,,---,0.00,0.00,VWS V14.01,2013-01-05 10:27:00,
2013-01-05 05:31:00,27.7,20.2,30.07,West,273,0.0,0.0,73,0.00,,---,0.00,0.00,VWS V14.01,2013-01-05 10:31:00,
2013-01-05 05:32:00,27.6,20.1,30.07,West,273,0.0,0.0,73,0.00,,---,0.00,0.00,VWS V14.01,2013-01-05 10:32:00,
2013-01-05 05:33:00,27.6,20.1,30.08,West,273,0.0,0.0,73,0.00,,---,0.00,0.00,VWS V14.01,2013-01-05 10:33:00,
2013-01-05 05:36:00,27.6,20.1,30.08,West,273,0.0,0.0,73,0.00,,---,0.00,0.00,VWS V14.01,2013-01-05 10:36:00,
2013-01-05 05:37:00,27.6,20.1,30.08,West,273,0.0,0.0,73,0.00,,---,0.00,0.00,VWS V14.01,2013-01-05 10:37:00,
2013-01-05 05:38:00,27.6,20.1,30.08,West,273,0.0,0.0,73,0.00,,---,0.00,0.00,VWS V14.01,2013-01-05 10:38:00,
2013-01-05 05:41:00,27.5,20.0,30.08,West,273,0.0,0.0,73,0.00,,---,0.00,0.00,VWS V14.01,2013-01-05 10:41:00,
2013-01-05 05:42:00,27.5,20.3,30.08,West,273,0.0,0.0,74,0.00,,---,0.00,0.00,VWS V14.01,2013-01-05 10:42:00,
2013-01-05 05:43:00,27.5,20.3,30.08,West,273,0.0,0.0,74,0.00,,---,0.00,0.00,VWS V14.01,2013-01-05 10:43:00,
2013-01-05 05:46:00,27.5,20.3,30.08,West,273,0.0,0.0,74,0.00,,---,0.00,0.00,VWS V14.01,2013-01-05 10:46:00,
2013-01-05 05:47:00,27.5,20.3,30.08,West,273,0.0,0.0,74,0.00,,---,0.00,0.00,VWS V14.01,2013-01-05 10:47:00,
2013-01-05 05:48:00,27.4,20.2,30.09,West,273,0.0,0.0,74,0.00,,---,0.00,0.00,VWS V14.01,2013-01-05 10:48:00,
2013-01-05 05:51:00,27.4,20.2,30.09,West,273,0.0,0.0,74,0.00,,---,0.00,0.00,VWS V14.01,2013-01-05 10:51:00,
2013-01-05 05:52:00,27.4,20.2,30.09,West,273,0.0,0.0,74,0.00,,---,0.00,0.00,VWS V14.01,2013-01-05 10:52:00,
2013-01-05 05:53:00,27.4,20.2,30.09,West,273,0.0,0.0,74,0.00,,---,0.00,0.00,VWS V14.01,2013-01-05 10:53:00,
2013-01-05 05:56:00,27.3,20.1,30.09,West,273,0.0,0.0,74,0.00,,---,0.00,0.00,VWS V14.01,2013-01-05 10:56:00,
2013-01-05 05:57:00,27.3,20.1,30.09,West,273,0.0,0.0,74,0.00,,---,0.00,0.00,VWS V14.01,2013-01-05 10:57:00,
2013-01-05 05:58:00,27.3,20.1,30.09,West,273,0.0,1.0,74,0.00,,---,0.00,0.00,VWS V14.01,2013-01-05 10:58:00,
2013-01-05 06:01:00,27.2,20.0,30.08,West,273,0.0,0.0,74,0.00,,---,0.00,0.00,VWS V14.01,2013-01-05 11:01:00,
2013-01-05 06:02:00,27.2,20.0,30.08,West,273,0.0,0.0,74,0.00,,---,0.00,0.00,VWS V14.01,2013-01-05 11:02:00,
2013-01-05 06:03:00,27.2,20.0,30.09,West,273,0.0,0.0,74,0.00,,---,0.00,0.00,VWS V14.01,2013-01-05 11:03:00,
2013-01-05 06:07:00,27.2,20.3,30.09,West,273,0.0,0.0,75,0.00,,---,0.00,0.00,VWS V14.01,2013-01-05 11:07:00,
2013-01-05 06:08:00,27.1,20.2,30.09,West,273,0.0,0.0,75,0.00,,---,0.00,0.00,VWS V14.01,2013-01-05 11:08:00,
2013-01-05 06:12:00,27.1,20.2,30.09,West,273,0.0,1.0,75,0.00,,---,0.00,0.00,VWS V14.01,2013-01-05 11:12:00,
2013-01-05 06:13:00,27.1,20.2,30.10,West,273,0.0,1.0,75,0.00,,---,0.00,0.00,VWS V14.01,2013-01-05 11:13:00,
2013-01-05 06:17:00,27.0,20.1,30.10,West,273,0.0,1.0,75,0.00,,---,0.00,0.00,VWS V14.01,2013-01-05 11:17:00,
2013-01-05 06:18:00,27.0,20.1,30.10,West,273,0.0,1.0,75,0.00,,---,0.00,0.00,VWS V14.01,2013-01-05 11:18:00,
2013-01-05 06:22:00,27.0,20.1,30.10,West,278,0.0,0.0,75,0.00,,---,0.00,0.00,VWS V14.01,2013-01-05 11:22:00,
2013-01-05 06:23:00,27.0,20.1,30.10,West,278,0.0,0.0,75,0.00,,---,0.00,0.00,VWS V14.01,2013-01-05 11:23:00,
2013-01-05 06:24:00,27.0,20.1,30.10,West,278,0.0,0.0,75,0.00,,---,0.00,0.00,VWS V14.01,2013-01-05 11:24:00,
2013-01-05 06:27:00,26.9,20.4,30.10,West,278,0.0,1.0,76,0.00,,---,0.00,0.00,VWS V14.01,2013-01-05 11:27:00,
2013-01-05 06:28:00,26.9,20.0,30.10,West,278,0.0,1.0,75,0.00,,---,0.00,0.00,VWS V14.01,2013-01-05 11:28:00,
2013-01-05 06:29:00,26.9,20.0,30.10,WSW,257,1.0,1.0,75,0.00,,---,0.00,0.00,VWS V14.01,2013-01-05 11:29:00,
2013-01-05 06:32:00,26.9,20.4,30.11,WSW,248,0.0,0.0,76,0.00,,---,0.00,0.00,VWS V14.01,2013-01-05 11:32:00,
2013-01-05 06:33:00,26.9,20.4,30.11,WSW,248,0.0,0.0,76,0.00,,---,0.00,0.00,VWS V14.01,2013-01-05 11:33:00,
2013-01-05 06:34:00,26.9,20.4,30.11,WSW,248,0.0,0.0,76,0.00,,---,0.00,0.00,VWS V14.01,2013-01-05 11:34:00,
2013-01-05 06:37:00,26.9,20.4,30.12,WSW,248,0.0,0.0,76,0.00,,---,0.00,0.00,VWS V14.01,2013-01-05 11:37:00,
2013-01-05 06:38:00,26.9,20.4,30.12,WSW,248,0.0,0.0,76,0.00,,---,0.00,0.00,VWS V14.01,2013-01-05 11:38:00,
2013-01-05 06:39:00,26.9,20.4,30.12,WSW,248,0.0,0.0,76,0.00,,---,0.00,0.00,VWS V14.01,2013-01-05 11:39:00,
2013-01-05 06:42:00,26.9,20.4,30.12,WSW,248,0.0,0.0,76,0.00,,---,0.00,0.00,VWS V14.01,2013-01-05 11:42:00,
2013-01-05 06:43:00,26.9,20.4,30.12,WSW,248,0.0,0.0,76,0.00,,---,0.00,0.00,VWS V14.01,2013-01-05 11:43:00,
2013-01-05 06:44:00,26.8,20.3,30.13,WSW,248,0.0,0.0,76,0.00,,---,0.00,0.00,VWS V14.01,2013-01-05 11:44:00,
2013-01-05 06:48:00,26.8,20.3,30.13,WSW,248,0.0,0.0,76,0.00,,---,0.00,0.00,VWS V14.01,2013-01-05 11:48:00,
2013-01-05 06:49:00,26.8,20.3,30.13,WSW,248,0.0,0.0,76,0.00,,---,0.00,0.00,VWS V14.01,2013-01-05 11:49:00,
2013-01-05 06:53:00,26.9,20.4,30.13,ENE,76,0.0,0.0,76,0.00,,---,0.00,0.00,VWS V14.01,2013-01-05 11:53:00,
2013-01-05 06:54:00,26.9,20.4,30.13,ENE,76,0.0,0.0,76,0.00,,---,0.00,0.00,VWS V14.01,2013-01-05 11:54:00,
2013-01-05 06:58:00,26.9,20.4,30.13,ENE,76,0.0,1.0,76,0.00,,---,0.00,0.00,VWS V14.01,2013-01-05 11:58:00,
2013-01-05 06:59:00,27.0,20.5,30.13,ENE,76,0.0,1.0,76,0.00,,---,0.00,0.00,VWS V14.01,2013-01-05 11:59:00,
2013-01-05 07:03:00,27.0,20.5,30.13,ENE,76,0.0,0.0,76,0.00,,---,0.00,0.00,VWS V14.01,2013-01-05 12:03:00,
2013-01-05 07:04:00,27.0,20.5,30.13,ENE,76,0.0,0.0,76,0.00,,---,0.00,0.00,VWS V14.01,2013-01-05 12:04:00,
2013-01-05 07:08:00,27.0,20.5,30.13,East,79,0.0,1.0,76,0.00,,---,0.00,0.00,VWS V14.01,2013-01-05 12:08:00,
2013-01-05 07:09:00,27.0,20.5,30.13,ENE,78,0.0,1.0,76,0.00,,---,0.00,0.00,VWS V14.01,2013-01-05 12:09:00,
2013-01-05 07:13:00,27.0,20.5,30.14,WSW,240,1.0,3.0,76,0.00,,---,0.00,0.00,VWS V14.01,2013-01-05 12:13:00,
2013-01-05 07:14:00,27.0,20.5,30.14,WSW,240,0.0,3.0,76,0.00,,---,0.00,0.00,VWS V14.01,2013-01-05 12:14:00,
2013-01-05 07:15:00,27.0,20.5,30.14,WSW,240,0.0,3.0,76,0.00,,---,0.00,0.00,VWS V14.01,2013-01-05 12:15:00,
2013-01-05 07:18:00,27.0,20.5,30.14,WSW,240,0.0,3.0,76,0.00,,---,0.00,0.00,VWS V14.01,2013-01-05 12:18:00,
2013-01-05 07:19:00,27.0,20.5,30.14,WSW,240,0.0,3.0,76,0.00,,---,0.00,0.00,VWS V14.01,2013-01-05 12:19:00,
2013-01-05 07:20:00,27.0,20.5,30.14,WSW,240,0.0,3.0,76,0.00,,---,0.00,0.00,VWS V14.01,2013-01-05 12:20:00,
2013-01-05 07:23:00,27.0,20.8,30.15,WSW,240,0.0,0.0,77,0.00,,---,0.00,5.00,VWS V14.01,2013-01-05 12:23:00,
2013-01-05 07:24:00,27.0,20.8,30.15,WSW,240,0.0,0.0,77,0.00,,---,0.00,5.00,VWS V14.01,2013-01-05 12:24:00,
2013-01-05 07:25:00,27.0,20.8,30.15,WSW,240,0.0,0.0,77,0.00,,---,0.00,5.00,VWS V14.01,2013-01-05 12:25:00,
2013-01-05 07:28:00,27.0,20.8,30.15,WSW,240,0.0,0.0,77,0.00,,---,0.00,7.00,VWS V14.01,2013-01-05 12:28:00,
2013-01-05 07:29:00,27.0,20.8,30.15,WSW,240,0.0,0.0,77,0.00,,---,0.00,7.00,VWS V14.01,2013-01-05 12:29:00,
2013-01-05 07:30:00,27.0,20.8,30.15,WSW,240,0.0,0.0,77,0.00,,---,0.00,7.00,VWS V14.01,2013-01-05 12:30:00,
2013-01-05 07:33:00,27.0,20.8,30.15,WSW,240,0.0,0.0,77,0.00,,---,0.00,9.00,VWS V14.01,2013-01-05 12:33:00,
2013-01-05 07:34:00,26.9,20.7,30.15,WSW,240,0.0,0.0,77,0.00,,---,0.00,9.00,VWS V14.01,2013-01-05 12:34:00,
2013-01-05 07:35:00,26.9,20.7,30.15,WSW,240,0.0,0.0,77,0.00,,---,0.00,9.00,VWS V14.01,2013-01-05 12:35:00,
2013-01-05 07:38:00,26.9,20.7,30.15,WSW,240,0.0,0.0,77,0.00,,---,0.00,11.00,VWS V14.01,2013-01-05 12:38:00,
2013-01-05 07:40:00,26.9,20.7,30.15,WSW,240,0.0,0.0,77,0.00,,---,0.00,11.00,VWS V14.01,2013-01-05 12:40:00,
2013-01-05 07:43:00,26.9,21.0,30.15,WSW,240,0.0,0.0,78,0.00,,---,0.00,12.00,VWS V14.01,2013-01-05 12:43:00,
2013-01-05 07:45:00,26.9,21.0,30.15,WSW,240,0.0,0.0,78,0.00,,---,0.00,14.00,VWS V14.01,2013-01-05 12:45:00,
2013-01-05 07:48:00,26.9,21.0,30.16,WSW,240,0.0,0.0,78,0.00,,---,0.00,16.00,VWS V14.01,2013-01-05 12:48:00,
2013-01-05 07:50:00,27.0,21.1,30.16,WSW,240,0.0,0.0,78,0.00,,---,0.00,16.00,VWS V14.01,2013-01-05 12:50:00,
2013-01-05 07:53:00,27.1,21.2,30.16,WSW,240,0.0,1.0,78,0.00,,---,0.00,18.00,VWS V14.01,2013-01-05 12:53:00,
2013-01-05 07:55:00,27.2,21.3,30.16,WSW,240,0.0,1.0,78,0.00,,---,0.00,18.00,VWS V14.01,2013-01-05 12:55:00,
2013-01-05 07:58:00,27.3,21.1,30.16,WSW,240,0.0,1.0,77,0.00,,---,0.00,19.00,VWS V14.01,2013-01-05 12:58:00,
2013-01-05 08:00:00,27.3,21.1,30.16,WSW,240,0.0,1.0,77,0.00,,---,0.00,21.00,VWS V14.01,2013-01-05 13:00:00,
2013-01-05 08:03:00,27.4,21.1,30.16,WSW,242,0.0,1.0,77,0.00,,---,0.00,21.00,VWS V14.01,2013-01-05 13:03:00,
2013-01-05 08:04:00,27.5,21.2,30.16,WSW,242,0.0,1.0,77,0.00,,---,0.00,21.00,VWS V14.01,2013-01-05 13:04:00,
2013-01-05 08:05:00,27.5,21.2,30.16,WSW,242,0.0,1.0,77,0.00,,---,0.00,23.00,VWS V14.01,2013-01-05 13:05:00,
2013-01-05 08:08:00,27.6,21.4,30.17,WSW,242,0.0,1.0,77,0.00,,---,0.00,25.00,VWS V14.01,2013-01-05 13:08:00,
2013-01-05 08:09:00,27.6,21.4,30.17,WSW,242,0.0,1.0,77,0.00,,---,0.00,25.00,VWS V14.01,2013-01-05 13:09:00,
2013-01-05 08:10:00,27.7,21.4,30.17,WSW,242,0.0,1.0,77,0.00,,---,0.00,25.00,VWS V14.01,2013-01-05 13:10:00,
2013-01-05 08:13:00,27.8,21.5,30.17,WSW,242,0.0,1.0,77,0.00,,---,0.00,26.00,VWS V14.01,2013-01-05 13:13:00,
2013-01-05 08:14:00,27.8,21.5,30.17,WSW,242,0.0,1.0,77,0.00,,---,0.00,26.00,VWS V14.01,2013-01-05 13:14:00,
2013-01-05 08:15:00,27.9,21.6,30.17,WSW,242,0.0,2.0,77,0.00,,---,0.00,26.00,VWS V14.01,2013-01-05 13:15:00,
2013-01-05 08:18:00,28.1,21.8,30.18,WSW,246,0.0,3.0,77,0.00,,---,0.00,28.00,VWS V14.01,2013-01-05 13:18:00,
2013-01-05 08:19:00,28.1,21.8,30.18,WSW,246,0.0,3.0,77,0.00,,---,0.00,28.00,VWS V14.01,2013-01-05 13:19:00,
2013-01-05 08:20:00,28.3,22.0,30.18,WSW,246,0.0,3.0,77,0.00,,---,0.00,28.00,VWS V14.01,2013-01-05 13:20:00,
2013-01-05 08:21:00,28.3,22.0,30.18,WSW,246,0.0,3.0,77,0.00,,---,0.00,28.00,VWS V14.01,2013-01-05 13:21:00,
2013-01-05 08:23:00,28.4,21.8,30.18,West,281,0.0,0.0,76,0.00,,---,0.00,30.00,VWS V14.01,2013-01-05 13:23:00,
2013-01-05 08:24:00,28.5,21.9,30.18,West,281,0.0,0.0,76,0.00,,---,0.00,30.00,VWS V14.01,2013-01-05 13:24:00,
2013-01-05 08:25:00,28.5,21.9,30.18,West,281,1.0,1.0,76,0.00,,---,0.00,30.00,VWS V14.01,2013-01-05 13:25:00,
2013-01-05 08:26:00,28.5,21.9,30.18,West,271,1.0,1.0,76,0.00,,---,0.00,30.00,VWS V14.01,2013-01-05 13:26:00,
2013-01-05 08:28:00,28.8,22.2,30.18,WSW,244,0.0,2.0,76,0.00,,---,0.00,44.00,VWS V14.01,2013-01-05 13:28:00,
2013-01-05 08:29:00,28.8,22.2,30.18,WSW,244,0.0,2.0,76,0.00,,---,0.00,44.00,VWS V14.01,2013-01-05 13:29:00,
2013-01-05 08:31:00,28.8,22.2,30.18,WSW,244,0.0,2.0,76,0.00,,---,0.00,39.00,VWS V14.01,2013-01-05 13:31:00,
2013-01-05 08:33:00,29.0,22.1,30.18,WSW,244,0.0,0.0,75,0.00,,---,0.00,56.00,VWS V14.01,2013-01-05 13:33:00,
2013-01-05 08:34:00,29.0,22.1,30.18,WSW,244,0.0,0.0,75,0.00,,---,0.00,46.00,VWS V14.01,2013-01-05 13:34:00,
2013-01-05 08:36:00,29.1,22.2,30.18,WSW,244,0.0,0.0,75,0.00,,---,0.00,44.00,VWS V14.01,2013-01-05 13:36:00,
2013-01-05 08:38:00,29.3,22.7,30.18,WSW,244,0.0,2.0,76,0.00,,---,0.00,47.00,VWS V14.01,2013-01-05 13:38:00,
2013-01-05 08:39:00,29.3,22.7,30.18,WSW,244,0.0,2.0,76,0.00,,---,0.00,42.00,VWS V14.01,2013-01-05 13:39:00,
2013-01-05 08:41:00,29.4,22.8,30.18,WSW,244,0.0,2.0,76,0.00,,---,0.00,46.00,VWS V14.01,2013-01-05 13:41:00,
2013-01-05 08:43:00,29.9,22.6,30.19,SW,228,0.0,2.0,74,0.00,,---,0.00,44.00,VWS V14.01,2013-01-05 13:43:00,
2013-01-05 08:44:00,30.0,22.7,30.19,SW,228,0.0,2.0,74,0.00,,---,0.00,54.00,VWS V14.01,2013-01-05 13:44:00,
2013-01-05 08:46:00,30.2,22.9,30.19,SW,228,0.0,2.0,74,0.00,,---,0.00,56.00,VWS V14.01,2013-01-05 13:46:00,
2013-01-05 08:48:00,30.5,22.9,30.18,SW,228,0.0,2.0,73,0.00,,---,0.00,90.00,VWS V14.01,2013-01-05 13:48:00,
2013-01-05 08:49:00,30.6,23.0,30.18,SW,228,0.0,2.0,73,0.00,,---,0.00,91.00,VWS V14.01,2013-01-05 13:49:00,
2013-01-05 08:51:00,30.8,22.9,30.18,SW,228,0.0,0.0,72,0.00,,---,0.00,51.00,VWS V14.01,2013-01-05 13:51:00,
2013-01-05 08:53:00,31.2,22.9,30.18,West,279,0.0,2.0,71,0.00,,---,0.00,100.00,VWS V14.01,2013-01-05 13:53:00,
2013-01-05 08:54:00,31.4,23.1,30.18,West,271,0.0,2.0,71,0.00,,---,0.00,100.00,VWS V14.01,2013-01-05 13:54:00,
2013-01-05 08:56:00,31.7,23.4,30.18,West,271,0.0,2.0,71,0.00,,---,0.00,83.00,VWS V14.01,2013-01-05 13:56:00,
2013-01-05 08:58:00,31.8,23.5,30.18,West,271,1.0,2.0,71,0.00,,---,0.00,105.00,VWS V14.01,2013-01-05 13:58:00,
2013-01-05 08:59:00,31.7,23.4,30.19,West,271,0.0,2.0,71,0.00,,---,0.00,158.00,VWS V14.01,2013-01-05 13:59:00,
2013-01-05 09:01:00,31.8,23.1,30.19,West,271,0.0,0.0,70,0.00,,---,0.00,181.00,VWS V14.01,2013-01-05 14:01:00,
2013-01-05 09:03:00,31.7,23.4,30.18,West,271,0.0,0.0,71,0.00,,---,0.00,135.00,VWS V14.01,2013-01-05 14:03:00,
2013-01-05 09:05:00,31.8,23.5,30.18,West,271,0.0,0.0,71,0.00,,---,0.00,116.00,VWS V14.01,2013-01-05 14:05:00,
2013-01-05 09:06:00,31.8,23.5,30.18,West,271,0.0,0.0,71,0.00,,---,0.00,95.00,VWS V14.01,2013-01-05 14:06:00,
2013-01-05 09:09:00,32.3,23.6,30.18,WSW,250,0.0,3.0,70,0.00,,---,0.00,118.00,VWS V14.01,2013-01-05 14:09:00,
2013-01-05 09:10:00,32.6,23.6,30.19,WSW,250,0.0,3.0,69,0.00,,---,0.00,104.00,VWS V14.01,2013-01-05 14:10:00,
2013-01-05 09:11:00,32.5,24.2,30.19,WSW,250,0.0,0.0,71,0.00,,---,0.00,74.00,VWS V14.01,2013-01-05 14:11:00,
2013-01-05 09:12:00,32.4,23.7,30.19,WSW,250,1.0,1.0,70,0.00,,---,0.00,74.00,VWS V14.01,2013-01-05 14:12:00,
2013-01-05 09:14:00,32.6,23.6,30.19,WSW,249,0.0,1.0,69,0.00,,---,0.00,116.00,VWS V14.01,2013-01-05 14:14:00,
2013-01-05 09:15:00,32.7,23.7,30.19,WSW,242,2.0,2.0,69,0.00,,---,0.00,113.00,VWS V14.01,2013-01-05 14:15:00,
2013-01-05 09:16:00,33.0,23.2,30.19,SW,236,1.0,4.0,67,0.00,,---,0.00,135.00,VWS V14.01,2013-01-05 14:16:00,
2013-01-05 09:17:00,33.1,23.4,30.19,SW,236,0.0,4.0,67,0.00,,---,0.00,149.00,VWS V14.01,2013-01-05 14:17:00,
2013-01-05 09:19:00,33.3,23.9,30.19,SW,236,0.0,4.0,68,0.00,,---,0.00,144.00,VWS V14.01,2013-01-05 14:19:00,
2013-01-05 09:20:00,33.2,23.8,30.19,SW,236,0.0,4.0,68,0.00,,---,0.00,72.00,VWS V14.01,2013-01-05 14:20:00,
2013-01-05 09:22:00,33.3,23.9,30.20,SW,236,0.0,0.0,68,0.00,,---,0.00,74.00,VWS V14.01,2013-01-05 14:22:00,
2013-01-05 09:24:00,33.3,23.9,30.20,SW,236,0.0,1.0,68,0.00,,---,0.00,81.00,VWS V14.01,2013-01-05 14:24:00,
2013-01-05 09:25:00,33.3,23.9,30.20,West,260,0.0,1.0,68,0.00,,---,0.00,98.00,VWS V14.01,2013-01-05 14:25:00,
2013-01-05 09:27:00,33.4,24.0,30.20,West,260,0.0,1.0,68,0.00,,---,0.00,98.00,VWS V14.01,2013-01-05 14:27:00,
2013-01-05 09:28:00,33.4,24.0,30.20,SW,229,1.0,2.0,68,0.00,,---,0.00,95.00,VWS V14.01,2013-01-05 14:28:00,
2013-01-05 09:29:00,33.6,23.8,30.20,West,275,0.0,3.0,67,0.00,,---,0.00,84.00,VWS V14.01,2013-01-05 14:29:00,
2013-01-05 09:30:00,33.7,24.3,30.20,WNW,288,0.0,3.0,68,0.00,,---,0.00,72.00,VWS V14.01,2013-01-05 14:30:00,
2013-01-05 09:32:00,33.7,24.3,30.20,SW,215,2.0,3.0,68,0.00,,---,0.00,51.00,VWS V14.01,2013-01-05 14:32:00,
2013-01-05 09:33:00,33.7,24.3,30.20,SW,232,2.0,3.0,68,0.00,,---,0.00,47.00,VWS V14.01,2013-01-05 14:33:00,
2013-01-05 09:34:00,33.9,23.8,30.20,SW,232,0.0,3.0,66,0.00,,---,0.00,47.00,VWS V14.01,2013-01-05 14:34:00,
2013-01-05 09:36:00,34.0,24.2,30.20,SW,232,0.0,3.0,67,0.00,,---,0.00,56.00,VWS V14.01,2013-01-05 14:36:00,
2013-01-05 09:37:00,34.1,24.0,30.20,SW,232,0.0,3.0,66,0.00,,---,0.00,125.00,VWS V14.01,2013-01-05 14:37:00,
2013-01-05 09:38:00,34.2,24.0,30.20,SW,232,0.0,3.0,66,0.00,,---,0.00,107.00,VWS V14.01,2013-01-05 14:38:00,
2013-01-05 09:39:00,34.3,24.1,30.20,SW,232,0.0,3.0,66,0.00,,---,0.00,98.00,VWS V14.01,2013-01-05 14:39:00,
2013-01-05 09:41:00,34.4,24.2,30.20,SW,232,0.0,3.0,66,0.00,,---,0.00,239.00,VWS V14.01,2013-01-05 14:41:00,
2013-01-05 09:42:00,34.5,24.3,30.20,SW,225,0.0,4.0,66,0.00,,---,0.00,171.00,VWS V14.01,2013-01-05 14:42:00,
2013-01-05 09:43:00,34.6,24.1,30.20,SW,232,0.0,4.0,65,0.00,,---,0.00,211.00,VWS V14.01,2013-01-05 14:43:00,
2013-01-05 09:44:00,34.6,24.4,30.20,SW,232,0.0,4.0,66,0.00,,---,0.00,227.00,VWS V14.01,2013-01-05 14:44:00,
2013-01-05 09:46:00,34.6,24.8,30.21,SW,232,0.0,4.0,67,0.00,,---,0.00,206.00,VWS V14.01,2013-01-05 14:46:00,
2013-01-05 09:48:00,34.4,24.2,30.21,WNW,286,0.0,4.0,66,0.00,,---,0.00,225.00,VWS V14.01,2013-01-05 14:48:00,
2013-01-05 09:49:00,34.7,24.1,30.21,SW,236,0.0,4.0,65,0.00,,---,0.00,202.00,VWS V14.01,2013-01-05 14:49:00,
2013-01-05 09:51:00,34.9,24.3,30.21,SSW,196,0.0,0.0,65,0.00,,---,0.00,160.00,VWS V14.01,2013-01-05 14:51:00,
2013-01-05 09:53:00,35.2,24.3,30.21,SW,232,0.0,3.0,64,0.00,,---,0.00,188.00,VWS V14.01,2013-01-05 14:53:00,
2013-01-05 09:54:00,35.4,24.5,30.21,SW,232,0.0,3.0,64,0.00,,---,0.00,209.00,VWS V14.01,2013-01-05 14:54:00,
2013-01-05 09:56:00,35.8,24.1,30.21,SW,235,0.0,3.0,62,0.00,,---,0.00,183.00,VWS V14.01,2013-01-05 14:56:00,
2013-01-05 09:58:00,35.7,24.7,30.21,NNW,346,0.0,3.0,64,0.00,,---,0.00,204.00,VWS V14.01,2013-01-05 14:58:00,
2013-01-05 09:59:00,35.3,25.1,30.21,SW,225,0.0,3.0,66,0.00,,---,0.00,279.00,VWS V14.01,2013-01-05 14:59:00,
2013-01-05 10:01:00,35.5,25.3,30.21,West,270,0.0,0.0,66,0.00,,---,0.00,279.00,VWS V14.01,2013-01-05 15:01:00,
2013-01-05 10:03:00,35.9,24.2,30.21,West,270,0.0,0.0,62,0.00,,---,0.00,272.00,VWS V14.01,2013-01-05 15:03:00,
2013-01-05 10:04:00,36.0,25.0,30.21,WSW,239,1.0,1.0,64,0.00,,---,0.00,308.00,VWS V14.01,2013-01-05 15:04:00,
2013-01-05 10:06:00,36.2,24.5,30.21,WSW,246,1.0,1.0,62,0.00,,---,0.00,209.00,VWS V14.01,2013-01-05 15:06:00,
2013-01-05 10:08:00,36.5,24.3,30.22,NW,313,3.0,4.0,61,0.00,,---,0.00,179.00,VWS V14.01,2013-01-05 15:08:00,
2013-01-05 10:09:00,36.5,24.3,30.22,SSE,156,0.0,4.0,61,0.00,,---,0.00,181.00,VWS V14.01,2013-01-05 15:09:00,
2013-01-05 10:11:00,36.8,24.2,30.22,SW,225,0.0,2.0,60,0.00,,---,0.00,227.00,VWS V14.01,2013-01-05 15:11:00,
2013-01-05 10:13:00,36.7,24.5,30.22,WNW,292,0.0,2.0,61,0.00,,---,0.00,315.00,VWS V14.01,2013-01-05 15:13:00,
2013-01-05 10:14:00,36.6,25.2,30.22,NNW,331,0.0,2.0,63,0.00,,---,0.00,343.00,VWS V14.01,2013-01-05 15:14:00,
2013-01-05 10:16:00,36.4,25.0,30.22,SW,236,0.0,2.0,63,0.00,,---,0.00,352.00,VWS V14.01,2013-01-05 15:16:00,
2013-01-05 10:18:00,36.6,24.8,30.22,West,268,0.0,2.0,62,0.00,,---,0.00,339.00,VWS V14.01,2013-01-05 15:18:00,
2013-01-05 10:19:00,36.8,24.2,30.22,West,277,0.0,3.0,60,0.00,,---,0.00,332.00,VWS V14.01,2013-01-05 15:19:00,
2013-01-05 10:21:00,37.0,24.4,30.22,WSW,244,0.0,0.0,60,0.00,,---,0.00,394.00,VWS V14.01,2013-01-05 15:21:00,
2013-01-05 10:23:00,37.2,24.6,30.22,NW,317,1.0,1.0,60,0.00,,---,0.00,406.00,VWS V14.01,2013-01-05 15:23:00,
2013-01-05 10:24:00,37.3,25.1,30.22,WSW,252,0.0,2.0,61,0.00,,---,0.00,381.00,VWS V14.01,2013-01-05 15:24:00,
2013-01-05 10:26:00,37.3,24.7,30.22,WSW,251,0.0,2.0,60,0.00,,---,0.00,193.00,VWS V14.01,2013-01-05 15:26:00,
2013-01-05 10:28:00,37.4,24.8,30.22,NW,315,0.0,4.0,60,0.00,,---,0.00,260.00,VWS V14.01,2013-01-05 15:28:00,
2013-01-05 10:29:00,37.5,24.5,30.22,WSW,253,0.0,4.0,59,0.00,,---,0.00,290.00,VWS V14.01,2013-01-05 15:29:00,
2013-01-05 10:30:00,37.5,24.5,30.22,WSW,253,0.0,4.0,59,0.00,,---,0.00,290.00,VWS V14.01,2013-01-05 15:30:00,
2013-01-05 10:32:00,37.7,24.7,30.22,WSW,242,0.0,2.0,59,0.00,,---,0.00,244.00,VWS V14.01,2013-01-05 15:32:00,
2013-01-05 10:33:00,37.8,24.4,30.21,West,263,0.0,2.0,58,0.00,,---,0.00,304.00,VWS V14.01,2013-01-05 15:33:00,
2013-01-05 10:34:00,37.8,24.4,30.22,SSW,203,2.0,3.0,58,0.00,,---,0.00,287.00,VWS V14.01,2013-01-05 15:34:00,
2013-01-05 10:35:00,37.8,24.4,30.22,West,274,0.0,3.0,58,0.00,,---,0.00,287.00,VWS V14.01,2013-01-05 15:35:00,
2013-01-05 10:37:00,37.7,25.1,30.22,SSW,210,1.0,3.0,60,0.00,,---,0.00,221.00,VWS V14.01,2013-01-05 15:37:00,
2013-01-05 10:38:00,37.7,24.3,30.22,North,350,0.0,3.0,58,0.00,,---,0.00,322.00,VWS V14.01,2013-01-05 15:38:00,
2013-01-05 10:39:00,37.7,25.1,30.22,North,350,0.0,3.0,60,0.00,,---,0.00,322.00,VWS V14.01,2013-01-05 15:39:00,
2013-01-05 10:40:00,37.6,25.4,30.22,North,350,0.0,3.0,61,0.00,,---,0.00,322.00,VWS V14.01,2013-01-05 15:40:00,
2013-01-05 10:42:00,37.6,24.2,30.22,WSW,239,2.0,2.0,58,0.00,,---,0.00,265.00,VWS V14.01,2013-01-05 15:42:00,
2013-01-05 10:44:00,37.8,24.4,30.22,SW,234,0.0,3.0,58,0.00,,---,0.00,149.00,VWS V14.01,2013-01-05 15:44:00,
2013-01-05 10:45:00,37.9,24.5,30.22,NW,320,2.0,5.0,58,0.00,,---,0.00,149.00,VWS V14.01,2013-01-05 15:45:00,
2013-01-05 10:47:00,37.8,25.2,30.22,West,271,0.0,5.0,60,0.00,,---,0.00,149.00,VWS V14.01,2013-01-05 15:47:00,
2013-01-05 10:49:00,37.6,25.0,30.22,West,281,0.0,5.0,60,0.00,,---,0.00,77.00,VWS V14.01,2013-01-05 15:49:00,
2013-01-05 10:50:00,37.7,25.1,30.22,SW,233,3.0,5.0,60,0.00,,---,0.00,76.00,VWS V14.01,2013-01-05 15:50:00,
2013-01-05 10:52:00,37.7,25.1,30.22,SW,234,0.0,2.0,60,0.00,,---,0.00,88.00,VWS V14.01,2013-01-05 15:52:00,
2013-01-05 10:54:00,37.8,24.8,30.22,NNW,333,0.0,2.0,59,0.00,,---,0.00,77.00,VWS V14.01,2013-01-05 15:54:00,
2013-01-05 10:55:00,37.8,25.2,30.22,NW,322,0.0,2.0,60,0.00,,---,0.00,120.00,VWS V14.01,2013-01-05 15:55:00,
2013-01-05 10:57:00,38.0,24.5,30.22,SW,236,0.0,4.0,58,0.00,,---,0.00,174.00,VWS V14.01,2013-01-05 15:57:00,
2013-01-05 10:59:00,38.0,25.4,30.22,WSW,249,1.0,9.0,60,0.00,,---,0.00,204.00,VWS V14.01,2013-01-05 15:59:00,
2013-01-05 11:00:00,37.9,24.0,30.22,NW,306,1.0,9.0,57,0.00,,---,0.00,264.00,VWS V14.01,2013-01-05 16:00:00,
2013-01-05 11:02:00,37.8,25.6,30.22,NNE,31,0.0,2.0,61,0.00,,---,0.00,274.00,VWS V14.01,2013-01-05 16:02:00,
2013-01-05 11:04:00,37.7,25.1,30.22,WSW,240,0.0,4.0,60,0.00,,---,0.00,241.00,VWS V14.01,2013-01-05 16:04:00,
2013-01-05 11:05:00,37.7,24.7,30.22,SW,225,0.0,4.0,59,0.00,,---,0.00,199.00,VWS V14.01,2013-01-05 16:05:00,
2013-01-05 11:07:00,37.7,25.1,30.22,SW,227,4.0,4.0,60,0.00,,---,0.00,248.00,VWS V14.01,2013-01-05 16:07:00,
2013-01-05 11:09:00,37.8,24.8,30.22,SW,233,3.0,5.0,59,0.00,,---,0.00,390.00,VWS V14.01,2013-01-05 16:09:00,
2013-01-05 11:10:00,37.8,24.8,30.22,WSW,240,1.0,5.0,59,0.00,,---,0.00,246.00,VWS V14.01,2013-01-05 16:10:00,
2013-01-05 11:12:00,37.9,24.9,30.22,South,182,0.0,3.0,59,0.00,,---,0.00,253.00,VWS V14.01,2013-01-05 16:12:00,
2013-01-05 11:14:00,38.0,24.5,30.22,WSW,243,0.0,3.0,58,0.00,,---,0.00,253.00,VWS V14.01,2013-01-05 16:14:00,
2013-01-05 11:15:00,38.1,25.5,30.22,ESE,109,0.0,3.0,60,0.00,,---,0.00,199.00,VWS V14.01,2013-01-05 16:15:00,
2013-01-05 11:17:00,38.1,24.6,30.22,WSW,240,2.0,6.0,58,0.00,,---,0.00,213.00,VWS V14.01,2013-01-05 16:17:00,
2013-01-05 11:19:00,38.1,24.6,30.22,WSW,244,3.0,6.0,58,0.00,,---,0.00,153.00,VWS V14.01,2013-01-05 16:19:00,
2013-01-05 11:20:00,38.2,24.3,30.22,South,174,1.0,6.0,57,0.00,,---,0.00,130.00,VWS V14.01,2013-01-05 16:20:00,
2013-01-05 11:22:00,38.3,24.8,30.22,SSE,163,0.0,0.0,58,0.00,,---,0.00,279.00,VWS V14.01,2013-01-05 16:22:00,
2013-01-05 11:24:00,38.3,25.2,30.22,NNW,327,1.0,2.0,59,0.00,,---,0.00,193.00,VWS V14.01,2013-01-05 16:24:00,
2013-01-05 11:25:00,38.3,25.2,30.23,NNW,337,3.0,3.0,59,0.00,,---,0.00,153.00,VWS V14.01,2013-01-05 16:25:00,
2013-01-05 11:27:00,38.4,25.7,30.23,West,263,0.0,3.0,60,0.00,,---,0.00,290.00,VWS V14.01,2013-01-05 16:27:00,
2013-01-05 11:29:00,38.4,24.5,30.22,NNW,336,1.0,3.0,57,0.00,,---,0.00,186.00,VWS V14.01,2013-01-05 16:29:00,
2013-01-05 11:30:00,38.4,25.7,30.22,NW,307,0.0,3.0,60,0.00,,---,0.00,171.00,VWS V14.01,2013-01-05 16:30:00,
2013-01-05 11:31:00,38.4,25.7,30.22,NW,307,0.0,0.0,60,0.00,,---,0.00,171.00,VWS V14.01,2013-01-05 16:31:00,
2013-01-05 11:32:00,38.4,25.7,30.22,NNW,334,2.0,2.0,60,0.00,,---,0.00,156.00,VWS V14.01,2013-01-05 16:32:00,
2013-01-05 11:34:00,38.6,25.1,30.23,SW,231,3.0,3.0,58,0.00,,---,0.00,193.00,VWS V14.01,2013-01-05 16:34:00,
2013-01-05 11:36:00,38.6,24.7,30.23,NNW,344,0.0,5.0,57,0.00,,---,0.00,221.00,VWS V14.01,2013-01-05 16:36:00,
2013-01-05 11:37:00,38.7,26.0,30.23,North,355,1.0,5.0,60,0.00,,---,0.00,158.00,VWS V14.01,2013-01-05 16:37:00,
2013-01-05 11:39:00,38.7,24.4,30.23,NNW,346,1.0,5.0,56,0.00,,---,0.00,81.00,VWS V14.01,2013-01-05 16:39:00,
2013-01-05 11:41:00,38.7,25.2,30.23,NNW,329,1.0,5.0,58,0.00,,---,0.00,100.00,VWS V14.01,2013-01-05 16:41:00,
2013-01-05 11:42:00,38.8,24.5,30.22,NNW,337,0.0,2.0,56,0.00,,---,0.00,141.00,VWS V14.01,2013-01-05 16:42:00,
2013-01-05 11:44:00,38.9,24.6,30.22,NNE,13,1.0,6.0,56,0.00,,---,0.00,77.00,VWS V14.01,2013-01-05 16:44:00,
2013-01-05 11:46:00,38.8,24.5,30.22,NNE,17,0.0,6.0,56,0.00,,---,0.00,102.00,VWS V14.01,2013-01-05 16:46:00,
2013-01-05 11:47:00,38.8,25.3,30.21,NNW,342,3.0,6.0,58,0.00,,---,0.00,179.00,VWS V14.01,2013-01-05 16:47:00,
2013-01-05 11:49:00,38.8,25.7,30.21,North,9,0.0,6.0,59,0.00,,---,0.00,111.00,VWS V14.01,2013-01-05 16:49:00,
2013-01-05 11:51:00,38.8,26.1,30.21,North,9,0.0,6.0,60,0.00,,---,0.00,60.00,VWS V14.01,2013-01-05 16:51:00,
2013-01-05 11:53:00,38.8,24.9,30.21,NNW,340,0.0,3.0,57,0.00,,---,0.00,62.00,VWS V14.01,2013-01-05 16:53:00,
2013-01-05 11:55:00,38.7,26.0,30.21,SW,225,3.0,7.0,60,0.00,,---,0.00,56.00,VWS V14.01,2013-01-05 16:55:00,
2013-01-05 11:56:00,38.7,25.2,30.20,East,85,3.0,7.0,58,0.00,,---,0.00,53.00,VWS V14.01,2013-01-05 16:56:00,
2013-01-05 11:58:00,38.6,24.3,30.20,NNW,342,0.0,7.0,56,0.00,,---,0.00,56.00,VWS V14.01,2013-01-05 16:58:00,
2013-01-05 12:00:00,38.6,24.7,30.20,West,277,0.0,7.0,57,0.00,,---,0.00,60.00,VWS V14.01,2013-01-05 17:00:00,
2013-01-05 12:01:00,38.7,24.8,30.20,West,267,1.0,1.0,57,0.00,,---,0.00,58.00,VWS V14.01,2013-01-05 17:01:00,
2013-01-05 12:03:00,38.7,25.2,30.20,NNW,341,0.0,6.0,58,0.00,,---,0.00,67.00,VWS V14.01,2013-01-05 17:03:00,
2013-01-05 12:05:00,38.7,24.4,30.19,NE,41,2.0,6.0,56,0.00,,---,0.00,60.00,VWS V14.01,2013-01-05 17:05:00,
2013-01-05 12:06:00,38.7,24.8,30.19,NNW,347,0.0,6.0,57,0.00,,---,0.00,54.00,VWS V14.01,2013-01-05 17:06:00,
2013-01-05 12:08:00,38.6,24.7,30.20,NNW,341,1.0,6.0,57,0.00,,---,0.00,58.00,VWS V14.01,2013-01-05 17:08:00,
2013-01-05 12:10:00,38.6,24.7,30.20,NW,313,0.0,6.0,57,0.00,,---,0.00,56.00,VWS V14.01,2013-01-05 17:10:00,
2013-01-05 12:11:00,38.5,24.2,30.20,ENE,71,1.0,4.0,56,0.00,,---,0.00,93.00,VWS V14.01,2013-01-05 17:11:00,
2013-01-05 12:13:00,38.4,24.5,30.19,WSW,247,0.0,8.0,57,0.00,,---,0.00,114.00,VWS V14.01,2013-01-05 17:13:00,
2013-01-05 12:15:00,38.4,24.9,30.19,North,355,2.0,8.0,58,0.00,,---,0.00,125.00,VWS V14.01,2013-01-05 17:15:00,
2013-01-05 12:16:00,38.4,24.9,30.20,WSW,241,1.0,8.0,58,0.00,,---,0.00,128.00,VWS V14.01,2013-01-05 17:16:00,
2013-01-05 12:18:00,38.5,24.2,30.20,South,184,1.0,8.0,56,0.00,,---,0.00,72.00,VWS V14.01,2013-01-05 17:18:00,
2013-01-05 12:21:00,38.7,25.2,30.20,NNW,330,3.0,8.0,58,0.00,,---,0.00,69.00,VWS V14.01,2013-01-05 17:21:00,
2013-01-05 12:23:00,38.8,24.5,30.20,North,5,0.0,4.0,56,0.00,,---,0.00,67.00,VWS V14.01,2013-01-05 17:23:00,
2013-01-05 12:26:00,38.8,24.9,30.20,West,259,1.0,4.0,57,0.00,,---,0.00,81.00,VWS V14.01,2013-01-05 17:26:00,
2013-01-05 12:28:00,39.0,24.6,30.20,North,360,1.0,4.0,56,0.00,,---,0.00,79.00,VWS V14.01,2013-01-05 17:28:00,
2013-01-05 12:31:00,39.1,24.7,30.20,West,271,0.0,1.0,56,0.00,,---,0.00,67.00,VWS V14.01,2013-01-05 17:31:00,
2013-01-05 12:33:00,39.2,24.8,30.20,WNW,285,0.0,3.0,56,0.00,,---,0.00,63.00,VWS V14.01,2013-01-05 17:33:00,
2013-01-05 12:36:00,39.2,25.3,30.20,North,351,0.0,3.0,57,0.00,,---,0.00,69.00,VWS V14.01,2013-01-05 17:36:00,
2013-01-05 12:38:00,39.0,25.5,30.20,WSW,249,2.0,3.0,58,0.00,,---,0.00,74.00,VWS V14.01,2013-01-05 17:38:00,
2013-01-05 12:41:00,39.1,24.3,30.20,NW,321,0.0,1.0,55,0.00,,---,0.00,83.00,VWS V14.01,2013-01-05 17:41:00,
2013-01-05 12:43:00,39.1,24.7,30.20,WSW,256,2.0,5.0,56,0.00,,---,0.00,88.00,VWS V14.01,2013-01-05 17:43:00,
2013-01-05 12:46:00,39.1,24.7,30.20,WSW,242,0.0,5.0,56,0.00,,---,0.00,93.00,VWS V14.01,2013-01-05 17:46:00,
2013-01-05 12:47:00,39.2,24.8,30.20,WSW,242,0.0,5.0,56,0.00,,---,0.00,93.00,VWS V14.01,2013-01-05 17:47:00,
2013-01-05 12:49:00,39.2,24.8,30.19,NNW,344,1.0,5.0,56,0.00,,---,0.00,84.00,VWS V14.01,2013-01-05 17:49:00,
2013-01-05 12:51:00,39.1,24.7,30.19,NNW,343,1.0,3.0,56,0.00,,---,0.00,83.00,VWS V14.01,2013-01-05 17:51:00,
2013-01-05 12:52:00,39.1,24.7,30.19,NNW,343,0.0,3.0,56,0.00,,---,0.00,83.00,VWS V14.01,2013-01-05 17:52:00,
2013-01-05 12:54:00,39.0,24.6,30.19,NNW,338,0.0,3.0,56,0.00,,---,0.00,81.00,VWS V14.01,2013-01-05 17:54:00,
2013-01-05 12:57:00,39.1,24.3,30.19,NE,40,2.0,5.0,55,0.00,,---,0.00,83.00,VWS V14.01,2013-01-05 17:57:00,
2013-01-05 12:59:00,39.1,24.3,30.18,North,351,2.0,5.0,55,0.00,,---,0.00,116.00,VWS V14.01,2013-01-05 17:59:00,
2013-01-05 13:02:00,39.2,25.7,30.18,North,355,0.0,0.0,58,0.00,,---,0.00,84.00,VWS V14.01,2013-01-05 18:02:00,
2013-01-05 13:03:00,39.2,25.3,30.18,WSW,238,4.0,5.0,57,0.00,,---,0.00,63.00,VWS V14.01,2013-01-05 18:03:00,
2013-01-05 13:04:00,39.2,24.4,30.18,NNW,338,0.0,5.0,55,0.00,,---,0.00,60.00,VWS V14.01,2013-01-05 18:04:00,
2013-01-05 13:07:00,39.2,24.8,30.18,North,355,3.0,5.0,56,0.00,,---,0.00,54.00,VWS V14.01,2013-01-05 18:07:00,
2013-01-05 13:08:00,39.1,23.9,30.18,NNW,346,2.0,5.0,54,0.00,,---,0.00,63.00,VWS V14.01,2013-01-05 18:08:00,
2013-01-05 13:09:00,39.0,24.2,30.18,West,281,0.0,5.0,55,0.00,,---,0.00,54.00,VWS V14.01,2013-01-05 18:09:00,
2013-01-05 13:12:00,38.9,23.7,30.18,NNW,346,2.0,2.0,54,0.00,,---,0.00,69.00,VWS V14.01,2013-01-05 18:12:00,
2013-01-05 13:13:00,38.9,24.6,30.18,WSW,246,1.0,2.0,56,0.00,,---,0.00,93.00,VWS V14.01,2013-01-05 18:13:00,
2013-01-05 13:14:00,38.8,24.9,30.18,WSW,246,0.0,2.0,57,0.00,,---,0.00,109.00,VWS V14.01,2013-01-05 18:14:00,
2013-01-05 13:17:00,38.9,25.0,30.18,WSW,248,1.0,4.0,57,0.00,,---,0.00,98.00,VWS V14.01,2013-01-05 18:17:00,
2013-01-05 13:18:00,38.9,24.6,30.18,WNW,284,0.0,4.0,56,0.00,,---,0.00,93.00,VWS V14.01,2013-01-05 18:18:00,
2013-01-05 13:19:00,38.9,24.1,30.18,WNW,289,0.0,4.0,55,0.00,,---,0.00,86.00,VWS V14.01,2013-01-05 18:19:00,
2013-01-05 13:22:00,38.9,24.6,30.18,North,355,0.0,3.0,56,0.00,,---,0.00,113.00,VWS V14.01,2013-01-05 18:22:00,
2013-01-05 13:23:00,38.9,25.0,30.18,North,355,0.0,3.0,57,0.00,,---,0.00,132.00,VWS V14.01,2013-01-05 18:23:00,
2013-01-05 13:24:00,38.9,25.0,30.18,NW,308,0.0,3.0,57,0.00,,---,0.00,118.00,VWS V14.01,2013-01-05 18:24:00,
2013-01-05 13:27:00,38.9,25.8,30.18,NW,308,0.0,3.0,59,0.00,,---,0.00,109.00,VWS V14.01,2013-01-05 18:27:00,
2013-01-05 13:28:00,38.8,25.7,30.18,SW,232,1.0,3.0,59,0.00,,---,0.00,98.00,VWS V14.01,2013-01-05 18:28:00,
2013-01-05 13:29:00,38.7,25.2,30.18,SW,221,0.0,3.0,58,0.00,,---,0.00,93.00,VWS V14.01,2013-01-05 18:29:00,
2013-01-05 13:32:00,38.7,24.8,30.19,WSW,245,0.0,1.0,57,0.00,,---,0.00,102.00,VWS V14.01,2013-01-05 18:32:00,
2013-01-05 13:33:00,38.8,24.9,30.18,West,262,0.0,1.0,57,0.00,,---,0.00,107.00,VWS V14.01,2013-01-05 18:33:00,
2013-01-05 13:34:00,38.8,25.7,30.18,West,262,0.0,1.0,59,0.00,,---,0.00,97.00,VWS V14.01,2013-01-05 18:34:00,
2013-01-05 13:37:00,39.1,24.7,30.19,WNW,301,1.0,2.0,56,0.00,,---,0.00,98.00,VWS V14.01,2013-01-05 18:37:00,
2013-01-05 13:38:00,39.3,25.4,30.18,West,263,0.0,2.0,57,0.00,,---,0.00,98.00,VWS V14.01,2013-01-05 18:38:00,
2013-01-05 13:39:00,39.4,25.0,30.19,North,355,0.0,2.0,56,0.00,,---,0.00,95.00,VWS V14.01,2013-01-05 18:39:00,
2013-01-05 13:42:00,39.5,24.7,30.19,SSE,161,0.0,3.0,55,0.00,,---,0.00,100.00,VWS V14.01,2013-01-05 18:42:00,
2013-01-05 13:43:00,39.6,24.8,30.19,NNE,26,0.0,3.0,55,0.00,,---,0.00,98.00,VWS V14.01,2013-01-05 18:43:00,
2013-01-05 13:45:00,39.6,23.9,30.19,NNW,332,0.0,5.0,53,0.00,,---,0.00,74.00,VWS V14.01,2013-01-05 18:45:00,
2013-01-05 13:47:00,39.4,23.7,30.19,SW,231,0.0,5.0,53,0.00,,---,0.00,56.00,VWS V14.01,2013-01-05 18:47:00,
2013-01-05 13:48:00,39.3,24.5,30.19,North,350,0.0,5.0,55,0.00,,---,0.00,53.00,VWS V14.01,2013-01-05 18:48:00,
2013-01-05 13:50:00,39.2,24.8,30.19,North,355,2.0,5.0,56,0.00,,---,0.00,51.00,VWS V14.01,2013-01-05 18:50:00,
2013-01-05 13:52:00,39.2,24.0,30.19,North,355,0.0,0.0,54,0.00,,---,0.00,69.00,VWS V14.01,2013-01-05 18:52:00,
2013-01-05 13:54:00,39.2,25.3,30.19,SW,235,0.0,3.0,57,0.00,,---,0.00,63.00,VWS V14.01,2013-01-05 18:54:00,
2013-01-05 13:55:00,39.2,24.4,30.19,SW,235,0.0,3.0,55,0.00,,---,0.00,62.00,VWS V14.01,2013-01-05 18:55:00,
2013-01-05 13:57:00,39.1,24.7,30.19,SW,229,1.0,3.0,56,0.00,,---,0.00,58.00,VWS V14.01,2013-01-05 18:57:00,
2013-01-05 13:58:00,39.1,24.7,30.19,SW,229,1.0,3.0,56,0.00,,---,0.00,58.00,VWS V14.01,2013-01-05 18:58:00,
2013-01-05 13:59:00,39.1,24.3,30.19,WSW,254,0.0,3.0,55,0.00,,---,0.00,62.00,VWS V14.01,2013-01-05 18:59:00,
2013-01-05 14:00:00,39.1,24.3,30.19,SSW,213,0.0,3.0,55,0.00,,---,0.00,63.00,VWS V14.01,2013-01-05 19:00:00,
2013-01-05 14:03:00,39.1,24.7,30.20,SW,228,0.0,1.0,56,0.00,,---,0.00,76.00,VWS V14.01,2013-01-05 19:03:00,
2013-01-05 14:04:00,39.1,24.7,30.20,SW,228,0.0,2.0,56,0.00,,---,0.00,81.00,VWS V14.01,2013-01-05 19:04:00,
2013-01-05 14:05:00,39.2,23.5,30.20,NNW,327,1.0,2.0,53,0.00,,---,0.00,83.00,VWS V14.01,2013-01-05 19:05:00,
2013-01-05 14:08:00,39.4,23.7,30.20,West,265,0.0,5.0,53,0.00,,---,0.00,81.00,VWS V14.01,2013-01-05 19:08:00,
2013-01-05 14:09:00,39.3,24.5,30.20,West,263,0.0,5.0,55,0.00,,---,0.00,83.00,VWS V14.01,2013-01-05 19:09:00,
2013-01-05 14:10:00,39.3,24.9,30.20,SW,216,0.0,5.0,56,0.00,,---,0.00,83.00,VWS V14.01,2013-01-05 19:10:00,
2013-01-05 14:13:00,39.2,24.0,30.20,NNW,340,0.0,2.0,54,0.00,,---,0.00,58.00,VWS V14.01,2013-01-05 19:13:00,
2013-01-05 14:14:00,39.1,23.9,30.20,NNW,340,0.0,2.0,54,0.00,,---,0.00,67.00,VWS V14.01,2013-01-05 19:14:00,
2013-01-05 14:15:00,39.1,24.7,30.20,WNW,300,1.0,2.0,56,0.00,,---,0.00,74.00,VWS V14.01,2013-01-05 19:15:00,
2013-01-05 14:18:00,39.0,25.1,30.20,West,263,0.0,2.0,57,0.00,,---,0.00,70.00,VWS V14.01,2013-01-05 19:18:00,
2013-01-05 14:19:00,39.0,23.8,30.20,NW,321,1.0,2.0,54,0.00,,---,0.00,69.00,VWS V14.01,2013-01-05 19:19:00,
2013-01-05 14:21:00,39.0,24.6,30.20,NW,321,0.0,2.0,56,0.00,,---,0.00,76.00,VWS V14.01,2013-01-05 19:21:00,
2013-01-05 14:23:00,39.1,24.3,30.20,WSW,240,0.0,2.0,55,0.00,,---,0.00,86.00,VWS V14.01,2013-01-05 19:23:00,
2013-01-05 14:24:00,39.1,24.7,30.20,WSW,242,0.0,2.0,56,0.00,,---,0.00,72.00,VWS V14.01,2013-01-05 19:24:00,
2013-01-05 14:26:00,39.3,23.6,30.20,West,263,0.0,2.0,53,0.00,,---,0.00,65.00,VWS V14.01,2013-01-05 19:26:00,
2013-01-05 14:28:00,39.3,24.1,30.20,West,263,0.0,2.0,54,0.00,,---,0.00,69.00,VWS V14.01,2013-01-05 19:28:00,
2013-01-05 14:29:00,39.4,23.7,30.20,WNW,302,0.0,2.0,53,0.00,,---,0.00,69.00,VWS V14.01,2013-01-05 19:29:00,
2013-01-05 14:31:00,39.5,22.9,30.20,West,280,0.0,2.0,51,0.00,,---,0.00,69.00,VWS V14.01,2013-01-05 19:31:00,
2013-01-05 14:33:00,39.5,23.8,30.21,NNW,343,0.0,2.0,53,0.00,,---,0.00,88.00,VWS V14.01,2013-01-05 19:33:00,
2013-01-05 14:34:00,39.5,23.4,30.21,WNW,291,1.0,2.0,52,0.00,,---,0.00,95.00,VWS V14.01,2013-01-05 19:34:00,
2013-01-05 14:36:00,39.4,23.7,30.21,WNW,298,0.0,4.0,53,0.00,,---,0.00,91.00,VWS V14.01,2013-01-05 19:36:00,
2013-01-05 14:38:00,39.2,24.4,30.21,North,350,0.0,4.0,55,0.00,,---,0.00,98.00,VWS V14.01,2013-01-05 19:38:00,
2013-01-05 14:39:00,39.1,24.3,30.21,North,350,0.0,4.0,55,0.00,,---,0.00,104.00,VWS V14.01,2013-01-05 19:39:00,
2013-01-05 14:40:00,39.0,23.8,30.21,North,349,1.0,4.0,54,0.00,,---,0.00,100.00,VWS V14.01,2013-01-05 19:40:00,
2013-01-05 14:41:00,39.0,23.3,30.21,NNW,336,0.0,0.0,53,0.00,,---,0.00,100.00,VWS V14.01,2013-01-05 19:41:00,
2013-01-05 14:43:00,38.9,24.1,30.21,NNW,338,0.0,2.0,55,0.00,,---,0.00,97.00,VWS V14.01,2013-01-05 19:43:00,
2013-01-05 14:44:00,38.9,24.1,30.21,NNW,339,0.0,2.0,55,0.00,,---,0.00,74.00,VWS V14.01,2013-01-05 19:44:00,
2013-01-05 14:45:00,38.9,24.1,30.21,NNW,339,0.0,2.0,55,0.00,,---,0.00,65.00,VWS V14.01,2013-01-05 19:45:00,
2013-01-05 14:46:00,38.9,24.1,30.20,NNW,339,0.0,2.0,55,0.00,,---,0.00,46.00,VWS V14.01,2013-01-05 19:46:00,
2013-01-05 14:48:00,38.7,25.6,30.20,NNW,339,0.0,2.0,59,0.00,,---,0.00,46.00,VWS V14.01,2013-01-05 19:48:00,
2013-01-05 14:49:00,38.6,25.1,30.20,NNW,339,0.0,2.0,58,0.00,,---,0.00,37.00,VWS V14.01,2013-01-05 19:49:00,
2013-01-05 14:50:00,38.5,24.6,30.20,NNW,339,0.0,2.0,57,0.00,,---,0.00,37.00,VWS V14.01,2013-01-05 19:50:00,
2013-01-05 14:51:00,38.6,24.7,30.20,NNW,339,0.0,0.0,57,0.00,,---,0.00,37.00,VWS V14.01,2013-01-05 19:51:00,
2013-01-05 14:53:00,38.6,25.1,30.21,NNE,21,1.0,1.0,58,0.00,,---,0.00,35.00,VWS V14.01,2013-01-05 19:53:00,
2013-01-05 14:54:00,38.6,24.7,30.21,ENE,75,0.0,2.0,57,0.00,,---,0.00,35.00,VWS V14.01,2013-01-05 19:54:00,
2013-01-05 14:55:00,38.7,23.9,30.20,ENE,69,0.0,2.0,55,0.00,,---,0.00,35.00,VWS V14.01,2013-01-05 19:55:00,
2013-01-05 14:56:00,38.7,24.8,30.21,ENE,69,0.0,2.0,57,0.00,,---,0.00,35.00,VWS V14.01,2013-01-05 19:56:00,
2013-01-05 14:58:00,38.6,25.5,30.20,ENE,69,0.0,2.0,59,0.00,,---,0.00,35.00,VWS V14.01,2013-01-05 19:58:00,
2013-01-05 14:59:00,38.5,24.6,30.20,NNE,32,1.0,2.0,57,0.00,,---,0.00,33.00,VWS V14.01,2013-01-05 19:59:00,
2013-01-05 15:00:00,38.4,25.7,30.20,NNE,32,0.0,2.0,60,0.00,,---,0.00,33.00,VWS V14.01,2013-01-05 20:00:00,
2013-01-05 15:01:00,38.3,24.0,30.20,NNE,32,1.0,1.0,56,0.00,,---,0.00,39.00,VWS V14.01,2013-01-05 20:01:00,
2013-01-05 15:03:00,38.3,25.2,30.21,WSW,238,0.0,2.0,59,0.00,,---,0.00,33.00,VWS V14.01,2013-01-05 20:03:00,
2013-01-05 15:04:00,38.3,24.8,30.21,WSW,238,0.0,2.0,58,0.00,,---,0.00,32.00,VWS V14.01,2013-01-05 20:04:00,
2013-01-05 15:05:00,38.4,24.1,30.21,WSW,238,0.0,2.0,56,0.00,,---,0.00,32.00,VWS V14.01,2013-01-05 20:05:00,
2013-01-05 15:07:00,38.5,24.6,30.21,WSW,238,0.0,2.0,57,0.00,,---,0.00,32.00,VWS V14.01,2013-01-05 20:07:00,
2013-01-05 15:08:00,38.2,26.3,30.21,WSW,238,0.0,2.0,62,0.00,,---,0.00,30.00,VWS V14.01,2013-01-05 20:08:00,
2013-01-05 15:09:00,38.2,25.1,30.21,WSW,238,0.0,2.0,59,0.00,,---,0.00,32.00,VWS V14.01,2013-01-05 20:09:00,
2013-01-05 15:10:00,38.0,25.0,30.21,WNW,285,1.0,2.0,59,0.00,,---,0.00,30.00,VWS V14.01,2013-01-05 20:10:00,
2013-01-05 15:12:00,38.0,25.0,30.21,WNW,286,0.0,0.0,59,0.00,,---,0.00,30.00,VWS V14.01,2013-01-05 20:12:00,
2013-01-05 15:13:00,38.0,25.8,30.22,West,272,0.0,0.0,61,0.00,,---,0.00,30.00,VWS V14.01,2013-01-05 20:13:00,
2013-01-05 15:14:00,38.1,25.1,30.22,WSW,250,0.0,1.0,59,0.00,,---,0.00,30.00,VWS V14.01,2013-01-05 20:14:00,
2013-01-05 15:15:00,38.2,24.3,30.22,WSW,250,0.0,1.0,57,0.00,,---,0.00,30.00,VWS V14.01,2013-01-05 20:15:00,
2013-01-05 15:17:00,38.2,24.3,30.22,West,271,0.0,5.0,57,0.00,,---,0.00,30.00,VWS V14.01,2013-01-05 20:17:00,
2013-01-05 15:18:00,38.3,24.0,30.22,West,271,0.0,5.0,56,0.00,,---,0.00,28.00,VWS V14.01,2013-01-05 20:18:00,
2013-01-05 15:19:00,38.3,24.4,30.22,West,271,0.0,5.0,57,0.00,,---,0.00,32.00,VWS V14.01,2013-01-05 20:19:00,
2013-01-05 15:21:00,38.4,24.1,30.22,WSW,258,2.0,5.0,56,0.00,,---,0.00,33.00,VWS V14.01,2013-01-05 20:21:00,
2013-01-05 15:22:00,38.4,24.1,30.22,WSW,258,0.0,2.0,56,0.00,,---,0.00,32.00,VWS V14.01,2013-01-05 20:22:00,
2013-01-05 15:24:00,38.5,23.8,30.22,WSW,258,0.0,2.0,55,0.00,,---,0.00,32.00,VWS V14.01,2013-01-05 20:24:00,
2013-01-05 15:26:00,38.3,24.8,30.22,WSW,258,0.0,2.0,58,0.00,,---,0.00,35.00,VWS V14.01,2013-01-05 20:26:00,
2013-01-05 15:27:00,38.2,24.7,30.21,WSW,258,0.0,2.0,58,0.00,,---,0.00,35.00,VWS V14.01,2013-01-05 20:27:00,
2013-01-05 15:29:00,38.4,23.7,30.21,WSW,258,0.0,2.0,55,0.00,,---,0.00,35.00,VWS V14.01,2013-01-05 20:29:00,
2013-01-05 15:30:00,38.4,23.7,30.21,WSW,258,0.0,2.0,55,0.00,,---,0.00,35.00,VWS V14.01,2013-01-05 20:30:00,
2013-01-05 15:31:00,38.5,23.3,30.21,WSW,258,0.0,0.0,54,0.00,,---,0.00,28.00,VWS V14.01,2013-01-05 20:31:00,
2013-01-05 15:32:00,38.5,23.8,30.21,WSW,258,0.0,0.0,55,0.00,,---,0.00,26.00,VWS V14.01,2013-01-05 20:32:00,
2013-01-05 15:34:00,38.2,24.7,30.21,WSW,258,0.0,0.0,58,0.00,,---,0.00,26.00,VWS V14.01,2013-01-05 20:34:00,
2013-01-05 15:35:00,38.1,25.1,30.21,WSW,258,0.0,0.0,59,0.00,,---,0.00,26.00,VWS V14.01,2013-01-05 20:35:00,
2013-01-05 15:36:00,37.8,24.8,30.21,WSW,258,0.0,0.0,59,0.00,,---,0.00,25.00,VWS V14.01,2013-01-05 20:36:00,
2013-01-05 15:37:00,37.7,24.7,30.21,WSW,258,0.0,0.0,59,0.00,,---,0.00,25.00,VWS V14.01,2013-01-05 20:37:00,
2013-01-05 15:39:00,37.5,25.7,30.21,WSW,258,0.0,0.0,62,0.00,,---,0.00,25.00,VWS V14.01,2013-01-05 20:39:00,
2013-01-05 15:40:00,37.4,26.0,30.21,WSW,258,0.0,0.0,63,0.00,,---,0.00,25.00,VWS V14.01,2013-01-05 20:40:00,
2013-01-05 15:41:00,37.0,25.6,30.21,WSW,258,0.0,0.0,63,0.00,,---,0.00,23.00,VWS V14.01,2013-01-05 20:41:00,
2013-01-05 15:42:00,36.9,24.7,30.21,WSW,258,0.0,0.0,61,0.00,,---,0.00,23.00,VWS V14.01,2013-01-05 20:42:00,
2013-01-05 15:44:00,37.2,24.2,30.21,WSW,258,0.0,0.0,59,0.00,,---,0.00,23.00,VWS V14.01,2013-01-05 20:44:00,
2013-01-05 15:45:00,37.2,24.2,30.21,WSW,258,0.0,0.0,59,0.00,,---,0.00,23.00,VWS V14.01,2013-01-05 20:45:00,
2013-01-05 15:47:00,37.3,25.1,30.21,WSW,258,0.0,0.0,61,0.00,,---,0.00,21.00,VWS V14.01,2013-01-05 20:47:00,
2013-01-05 15:49:00,37.3,24.3,30.22,WSW,258,0.0,0.0,59,0.00,,---,0.00,19.00,VWS V14.01,2013-01-05 20:49:00,
2013-01-05 15:50:00,37.3,23.9,30.22,WSW,258,0.0,0.0,58,0.00,,---,0.00,19.00,VWS V14.01,2013-01-05 20:50:00,
2013-01-05 15:52:00,37.4,23.6,30.22,WSW,258,0.0,0.0,57,0.00,,---,0.00,19.00,VWS V14.01,2013-01-05 20:52:00,
2013-01-05 15:53:00,37.5,24.1,30.21,WSW,258,0.0,0.0,58,0.00,,---,0.00,19.00,VWS V14.01,2013-01-05 20:53:00,
2013-01-05 15:54:00,37.3,24.7,30.21,WSW,258,0.0,1.0,60,0.00,,---,0.00,18.00,VWS V14.01,2013-01-05 20:54:00,
2013-01-05 15:55:00,37.2,25.0,30.22,West,259,0.0,1.0,61,0.00,,---,0.00,18.00,VWS V14.01,2013-01-05 20:55:00,
2013-01-05 15:57:00,37.0,25.2,30.22,WSW,258,1.0,1.0,62,0.00,,---,0.00,18.00,VWS V14.01,2013-01-05 20:57:00,
2013-01-05 15:58:00,37.0,24.8,30.22,WSW,258,0.0,1.0,61,0.00,,---,0.00,18.00,VWS V14.01,2013-01-05 20:58:00,
2013-01-05 15:59:00,36.8,24.6,30.22,WSW,258,0.0,1.0,61,0.00,,---,0.00,16.00,VWS V14.01,2013-01-05 20:59:00,
2013-01-05 16:00:00,36.8,24.6,30.21,WSW,258,0.0,1.0,61,0.00,,---,0.00,16.00,VWS V14.01,2013-01-05 21:00:00,
2013-01-05 16:02:00,36.7,24.5,30.21,WSW,258,0.0,0.0,61,0.00,,---,0.00,16.00,VWS V14.01,2013-01-05 21:02:00,
2013-01-05 16:03:00,36.6,25.6,30.21,WSW,258,0.0,0.0,64,0.00,,---,0.00,16.00,VWS V14.01,2013-01-05 21:03:00,
2013-01-05 16:04:00,36.3,25.7,30.22,WSW,258,0.0,0.0,65,0.00,,---,0.00,14.00,VWS V14.01,2013-01-05 21:04:00,
2013-01-05 16:05:00,36.2,25.6,30.21,WSW,258,0.0,0.0,65,0.00,,---,0.00,14.00,VWS V14.01,2013-01-05 21:05:00,
2013-01-05 16:07:00,36.3,24.1,30.21,WSW,258,0.0,0.0,61,0.00,,---,0.00,14.00,VWS V14.01,2013-01-05 21:07:00,
2013-01-05 16:08:00,36.3,24.1,30.21,WSW,258,0.0,0.0,61,0.00,,---,0.00,14.00,VWS V14.01,2013-01-05 21:08:00,
2013-01-05 16:10:00,36.4,23.9,30.21,WSW,258,0.0,0.0,60,0.00,,---,0.00,14.00,VWS V14.01,2013-01-05 21:10:00,
2013-01-05 16:12:00,36.4,23.5,30.21,West,259,0.0,0.0,59,0.00,,---,0.00,11.00,VWS V14.01,2013-01-05 21:12:00,
2013-01-05 16:13:00,36.4,23.0,30.21,WSW,258,0.0,0.0,58,0.00,,---,0.00,11.00,VWS V14.01,2013-01-05 21:13:00,
2013-01-05 16:15:00,36.6,24.0,30.21,West,259,0.0,0.0,60,0.00,,---,0.00,9.00,VWS V14.01,2013-01-05 21:15:00,
2013-01-05 16:17:00,36.6,23.6,30.21,WSW,258,0.0,0.0,59,0.00,,---,0.00,9.00,VWS V14.01,2013-01-05 21:17:00,
2013-01-05 16:18:00,36.5,24.0,30.21,WSW,258,0.0,0.0,60,0.00,,---,0.00,9.00,VWS V14.01,2013-01-05 21:18:00,
2013-01-05 16:20:00,36.4,24.6,30.21,WSW,258,0.0,0.0,62,0.00,,---,0.00,7.00,VWS V14.01,2013-01-05 21:20:00,
2013-01-05 16:22:00,35.9,24.9,30.22,WSW,258,0.0,0.0,64,0.00,,---,0.00,5.00,VWS V14.01,2013-01-05 21:22:00,
2013-01-05 16:23:00,35.8,24.5,30.22,West,259,0.0,0.0,63,0.00,,---,0.00,5.00,VWS V14.01,2013-01-05 21:23:00,
2013-01-05 16:25:00,35.7,24.4,30.22,WSW,258,0.0,0.0,63,0.00,,---,0.00,5.00,VWS V14.01,2013-01-05 21:25:00,
2013-01-05 16:26:00,35.6,24.3,30.22,West,259,0.0,0.0,63,0.00,,---,0.00,5.00,VWS V14.01,2013-01-05 21:26:00,
2013-01-05 16:28:00,35.4,24.1,30.22,WSW,258,0.0,0.0,63,0.00,,---,0.00,0.00,VWS V14.01,2013-01-05 21:28:00,
2013-01-05 16:30:00,35.3,24.0,30.22,WSW,258,0.0,0.0,63,0.00,,---,0.00,0.00,VWS V14.01,2013-01-05 21:30:00,
2013-01-05 16:31:00,35.2,23.9,30.22,WSW,258,0.0,0.0,63,0.00,,---,0.00,0.00,VWS V14.01,2013-01-05 21:31:00,
2013-01-05 16:33:00,35.0,24.1,30.22,WSW,258,0.0,0.0,64,0.00,,---,0.00,0.00,VWS V14.01,2013-01-05 21:33:00,
2013-01-05 16:35:00,34.9,24.0,30.22,WSW,258,0.0,0.0,64,0.00,,---,0.00,0.00,VWS V14.01,2013-01-05 21:35:00,
2013-01-05 16:36:00,34.9,24.0,30.22,West,259,0.0,0.0,64,0.00,,---,0.00,0.00,VWS V14.01,2013-01-05 21:36:00,
2013-01-05 16:38:00,34.9,23.6,30.23,WSW,258,0.0,0.0,63,0.00,,---,0.00,0.00,VWS V14.01,2013-01-05 21:38:00,
2013-01-05 16:39:00,34.9,23.6,30.23,WSW,258,0.0,0.0,63,0.00,,---,0.00,0.00,VWS V14.01,2013-01-05 21:39:00,
2013-01-05 16:40:00,34.8,23.9,30.22,West,259,0.0,0.0,64,0.00,,---,0.00,0.00,VWS V14.01,2013-01-05 21:40:00,
2013-01-05 16:41:00,34.7,24.5,30.22,WSW,258,0.0,0.0,66,0.00,,---,0.00,0.00,VWS V14.01,2013-01-05 21:41:00,
2013-01-05 16:43:00,34.0,24.9,30.23,WSW,258,0.0,0.0,69,0.00,,---,0.00,0.00,VWS V14.01,2013-01-05 21:43:00,
2013-01-05 16:44:00,33.8,24.4,30.23,WSW,258,0.0,0.0,68,0.00,,---,0.00,0.00,VWS V14.01,2013-01-05 21:44:00,
2013-01-05 16:45:00,33.5,25.1,30.23,WSW,258,0.0,0.0,71,0.00,,---,0.00,0.00,VWS V14.01,2013-01-05 21:45:00,
2013-01-05 16:46:00,33.4,25.0,30.23,West,259,0.0,0.0,71,0.00,,---,0.00,0.00,VWS V14.01,2013-01-05 21:46:00,
2013-01-05 16:48:00,33.2,24.5,30.23,West,259,0.0,0.0,70,0.00,,---,0.00,0.00,VWS V14.01,2013-01-05 21:48:00,
2013-01-05 16:49:00,33.2,23.8,30.23,West,259,0.0,0.0,68,0.00,,---,0.00,0.00,VWS V14.01,2013-01-05 21:49:00,
2013-01-05 16:50:00,33.3,23.9,30.23,WSW,258,0.0,0.0,68,0.00,,---,0.00,0.00,VWS V14.01,2013-01-05 21:50:00,
2013-01-05 16:51:00,33.3,23.9,30.23,WSW,258,0.0,0.0,68,0.00,,---,0.00,0.00,VWS V14.01,2013-01-05 21:51:00,
2013-01-05 16:53:00,33.3,24.2,30.23,WSW,258,0.0,0.0,69,0.00,,---,0.00,0.00,VWS V14.01,2013-01-05 21:53:00,
2013-01-05 16:54:00,33.3,23.9,30.22,WSW,258,0.0,0.0,68,0.00,,---,0.00,0.00,VWS V14.01,2013-01-05 21:54:00,
2013-01-05 16:56:00,33.3,24.2,30.22,West,259,0.0,0.0,69,0.00,,---,0.00,0.00,VWS V14.01,2013-01-05 21:56:00,
2013-01-05 16:58:00,32.8,24.5,30.23,West,259,0.0,0.0,71,0.00,,---,0.00,0.00,VWS V14.01,2013-01-05 21:58:00,
2013-01-05 16:59:00,32.6,24.2,30.23,WSW,258,0.0,0.0,71,0.00,,---,0.00,0.00,VWS V14.01,2013-01-05 21:59:00,
2013-01-05 17:01:00,32.5,24.2,30.23,West,259,0.0,0.0,71,0.00,,---,0.00,0.00,VWS V14.01,2013-01-05 22:01:00,
2013-01-05 17:03:00,32.2,24.5,30.23,WSW,258,0.0,0.0,73,0.00,,---,0.00,0.00,VWS V14.01,2013-01-05 22:03:00,
2013-01-05 17:05:00,32.1,23.8,30.23,West,259,0.0,0.0,71,0.00,,---,0.00,0.00,VWS V14.01,2013-01-05 22:05:00,
2013-01-05 17:06:00,32.0,23.3,30.23,West,259,0.0,0.0,70,0.00,,---,0.00,0.00,VWS V14.01,2013-01-05 22:06:00,
2013-01-05 17:08:00,32.1,23.8,30.23,WSW,258,0.0,0.0,71,0.00,,---,0.00,0.00,VWS V14.01,2013-01-05 22:08:00,
2013-01-05 17:10:00,32.2,23.9,30.23,WSW,258,0.0,0.0,71,0.00,,---,0.00,0.00,VWS V14.01,2013-01-05 22:10:00,
2013-01-05 17:11:00,32.2,23.9,30.23,WSW,258,0.0,0.0,71,0.00,,---,0.00,0.00,VWS V14.01,2013-01-05 22:11:00,
2013-01-05 17:13:00,32.1,24.8,30.23,WSW,258,0.0,0.0,74,0.00,,---,0.00,0.00,VWS V14.01,2013-01-05 22:13:00,
2013-01-05 17:15:00,31.9,24.2,30.23,WSW,258,0.0,0.0,73,0.00,,---,0.00,0.00,VWS V14.01,2013-01-05 22:15:00,
2013-01-05 17:16:00,31.9,24.2,30.23,West,259,0.0,0.0,73,0.00,,---,0.00,0.00,VWS V14.01,2013-01-05 22:16:00,
2013-01-05 17:18:00,31.5,24.2,30.24,WSW,258,0.0,0.0,74,0.00,,---,0.00,0.00,VWS V14.01,2013-01-05 22:18:00,
2013-01-05 17:20:00,31.5,23.9,30.24,WSW,258,0.0,0.0,73,0.00,,---,0.00,0.00,VWS V14.01,2013-01-05 22:20:00,
2013-01-05 17:21:00,31.5,23.9,30.24,WSW,258,0.0,0.0,73,0.00,,---,0.00,0.00,VWS V14.01,2013-01-05 22:21:00,
2013-01-05 17:24:00,31.6,23.6,30.24,West,259,0.0,0.0,72,0.00,,---,0.00,0.00,VWS V14.01,2013-01-05 22:24:00,
2013-01-05 17:25:00,31.7,23.4,30.24,WSW,258,0.0,0.0,71,0.00,,---,0.00,0.00,VWS V14.01,2013-01-05 22:25:00,
2013-01-05 17:26:00,31.7,23.4,30.24,WSW,258,0.0,0.0,71,0.00,,---,0.00,0.00,VWS V14.01,2013-01-05 22:26:00,
2013-01-05 17:29:00,31.8,23.5,30.24,WSW,258,0.0,0.0,71,0.00,,---,0.00,0.00,VWS V14.01,2013-01-05 22:29:00,
2013-01-05 17:30:00,31.9,23.6,30.24,WSW,258,0.0,0.0,71,0.00,,---,0.00,0.00,VWS V14.01,2013-01-05 22:30:00,
2013-01-05 17:31:00,31.9,23.2,30.24,West,259,0.0,0.0,70,0.00,,---,0.00,0.00,VWS V14.01,2013-01-05 22:31:00,
2013-01-05 17:34:00,31.5,23.9,30.24,WSW,258,0.0,0.0,73,0.00,,---,0.00,0.00,VWS V14.01,2013-01-05 22:34:00,
2013-01-05 17:35:00,31.3,24.3,30.24,West,259,0.0,0.0,75,0.00,,---,0.00,0.00,VWS V14.01,2013-01-05 22:35:00,
2013-01-05 17:36:00,31.1,23.8,30.24,West,259,0.0,0.0,74,0.00,,---,0.00,0.00,VWS V14.01,2013-01-05 22:36:00,
2013-01-05 17:37:00,31.1,23.8,30.24,WSW,258,0.0,0.0,74,0.00,,---,0.00,0.00,VWS V14.01,2013-01-05 22:37:00,
2013-01-05 17:39:00,31.0,23.4,30.24,WSW,258,0.0,0.0,73,0.00,,---,0.00,0.00,VWS V14.01,2013-01-05 22:39:00,
2013-01-05 17:40:00,30.9,23.6,30.24,WSW,258,0.0,0.0,74,0.00,,---,0.00,0.00,VWS V14.01,2013-01-05 22:40:00,
2013-01-05 17:41:00,30.8,23.5,30.24,WSW,258,0.0,0.0,74,0.00,,---,0.00,0.00,VWS V14.01,2013-01-05 22:41:00,
2013-01-05 17:42:00,30.7,23.7,30.24,WSW,258,0.0,0.0,75,0.00,,---,0.00,0.00,VWS V14.01,2013-01-05 22:42:00,
2013-01-05 17:44:00,30.7,22.8,30.24,WSW,258,0.0,0.0,72,0.00,,---,0.00,0.00,VWS V14.01,2013-01-05 22:44:00,
2013-01-05 17:45:00,30.6,23.6,30.24,WSW,258,0.0,0.0,75,0.00,,---,0.00,0.00,VWS V14.01,2013-01-05 22:45:00,
2013-01-05 17:46:00,30.5,23.9,30.25,West,259,0.0,0.0,76,0.00,,---,0.00,0.00,VWS V14.01,2013-01-05 22:46:00,
2013-01-05 17:47:00,30.4,23.4,30.25,WSW,258,0.0,0.0,75,0.00,,---,0.00,0.00,VWS V14.01,2013-01-05 22:47:00,
2013-01-05 17:49:00,30.3,23.7,30.25,WSW,258,0.0,0.0,76,0.00,,---,0.00,0.00,VWS V14.01,2013-01-05 22:49:00,
2013-01-05 17:51:00,30.3,23.3,30.25,WSW,258,0.0,0.0,75,0.00,,---,0.00,0.00,VWS V14.01,2013-01-05 22:51:00,
2013-01-05 17:52:00,30.3,23.7,30.25,WSW,258,0.0,0.0,76,0.00,,---,0.00,0.00,VWS V14.01,2013-01-05 22:52:00,
2013-01-05 17:54:00,30.1,23.1,30.25,WSW,258,0.0,0.0,75,0.00,,---,0.00,0.00,VWS V14.01,2013-01-05 22:54:00,
2013-01-05 17:56:00,30.2,22.9,30.25,WSW,258,0.0,0.0,74,0.00,,---,0.00,0.00,VWS V14.01,2013-01-05 22:56:00,
2013-01-05 17:57:00,30.2,22.9,30.25,WSW,258,0.0,0.0,74,0.00,,---,0.00,0.00,VWS V14.01,2013-01-05 22:57:00,
2013-01-05 17:59:00,30.3,23.0,30.25,WSW,258,0.0,0.0,74,0.00,,---,0.00,0.00,VWS V14.01,2013-01-05 22:59:00,
2013-01-05 18:01:00,30.1,23.5,30.25,WSW,258,0.0,0.0,76,0.00,,---,0.00,0.00,VWS V14.01,2013-01-05 23:01:00,
2013-01-05 18:02:00,30.0,23.4,30.25,WSW,258,0.0,0.0,76,0.00,,---,0.00,0.00,VWS V14.01,2013-01-05 23:02:00,
2013-01-05 18:04:00,29.6,23.3,30.25,West,259,0.0,0.0,77,0.00,,---,0.00,0.00,VWS V14.01,2013-01-05 23:04:00,
2013-01-05 18:06:00,29.4,23.1,30.25,WSW,258,0.0,0.0,77,0.00,,---,0.00,0.00,VWS V14.01,2013-01-05 23:06:00,
2013-01-05 18:07:00,29.4,23.1,30.25,West,259,0.0,0.0,77,0.00,,---,0.00,0.00,VWS V14.01,2013-01-05 23:07:00,
2013-01-05 18:08:00,29.3,23.0,30.25,WSW,258,0.0,0.0,77,0.00,,---,0.00,0.00,VWS V14.01,2013-01-05 23:08:00,
2013-01-05 18:09:00,29.3,22.7,30.25,WSW,258,0.0,0.0,76,0.00,,---,0.00,0.00,VWS V14.01,2013-01-05 23:09:00,
2013-01-05 18:11:00,29.3,22.7,30.25,WSW,258,0.0,0.0,76,0.00,,---,0.00,0.00,VWS V14.01,2013-01-05 23:11:00,
2013-01-05 18:12:00,29.3,22.7,30.25,WSW,258,0.0,0.0,76,0.00,,---,0.00,0.00,VWS V14.01,2013-01-05 23:12:00,
2013-01-05 18:13:00,29.2,22.6,30.25,WSW,258,0.0,0.0,76,0.00,,---,0.00,0.00,VWS V14.01,2013-01-05 23:13:00,
2013-01-05 18:14:00,29.2,22.9,30.25,West,278,1.0,1.0,77,0.00,,---,0.00,0.00,VWS V14.01,2013-01-05 23:14:00,
2013-01-05 18:16:00,29.0,22.7,30.25,West,278,0.0,1.0,77,0.00,,---,0.00,0.00,VWS V14.01,2013-01-05 23:16:00,
2013-01-05 18:17:00,29.0,22.7,30.25,West,278,0.0,1.0,77,0.00,,---,0.00,0.00,VWS V14.01,2013-01-05 23:17:00,
2013-01-05 18:18:00,29.0,22.7,30.25,West,278,0.0,1.0,77,0.00,,---,0.00,0.00,VWS V14.01,2013-01-05 23:18:00,
2013-01-05 18:19:00,29.0,23.0,30.25,West,278,0.0,1.0,78,0.00,,---,0.00,0.00,VWS V14.01,2013-01-05 23:19:00,
2013-01-05 18:22:00,29.1,23.1,30.25,West,278,0.0,0.0,78,0.00,,---,0.00,0.00,VWS V14.01,2013-01-05 23:22:00,
2013-01-05 18:23:00,29.2,22.9,30.25,West,278,0.0,0.0,77,0.00,,---,0.00,0.00,VWS V14.01,2013-01-05 23:23:00,
2013-01-05 18:24:00,29.2,22.9,30.25,West,278,0.0,0.0,77,0.00,,---,0.00,0.00,VWS V14.01,2013-01-05 23:24:00,
2013-01-05 18:27:00,29.2,22.9,30.25,West,278,0.0,0.0,77,0.00,,---,0.00,0.00,VWS V14.01,2013-01-05 23:27:00,
2013-01-05 18:28:00,29.2,22.9,30.25,West,278,0.0,0.0,77,0.00,,---,0.00,0.00,VWS V14.01,2013-01-05 23:28:00,
2013-01-05 18:29:00,29.2,22.9,30.26,West,278,0.0,0.0,77,0.00,,---,0.00,0.00,VWS V14.01,2013-01-05 23:29:00,
2013-01-05 18:32:00,29.2,22.9,30.26,West,278,0.0,0.0,77,0.00,,---,0.00,0.00,VWS V14.01,2013-01-05 23:32:00,
2013-01-05 18:33:00,29.1,22.8,30.26,West,278,0.0,0.0,77,0.00,,---,0.00,0.00,VWS V14.01,2013-01-05 23:33:00,
2013-01-05 18:35:00,29.1,22.8,30.25,West,278,0.0,0.0,77,0.00,,---,0.00,0.00,VWS V14.01,2013-01-05 23:35:00,
2013-01-05 18:37:00,29.1,22.8,30.25,West,278,0.0,0.0,77,0.00,,---,0.00,0.00,VWS V14.01,2013-01-05 23:37:00,
2013-01-05 18:39:00,29.1,22.8,30.25,West,278,0.0,0.0,77,0.00,,---,0.00,0.00,VWS V14.01,2013-01-05 23:39:00,
2013-01-05 18:40:00,29.1,22.8,30.26,West,278,0.0,0.0,77,0.00,,---,0.00,0.00,VWS V14.01,2013-01-05 23:40:00,
2013-01-05 18:42:00,29.0,23.0,30.25,West,275,0.0,0.0,78,0.00,,---,0.00,0.00,VWS V14.01,2013-01-05 23:42:00,
2013-01-05 18:44:00,29.1,23.1,30.25,West,275,0.0,0.0,78,0.00,,---,0.00,0.00,VWS V14.01,2013-01-05 23:44:00,
2013-01-05 18:45:00,29.1,23.1,30.25,West,275,0.0,0.0,78,0.00,,---,0.00,0.00,VWS V14.01,2013-01-05 23:45:00,
2013-01-05 18:47:00,29.0,22.7,30.25,West,275,0.0,0.0,77,0.00,,---,0.00,0.00,VWS V14.01,2013-01-05 23:47:00,
2013-01-05 18:49:00,29.0,22.7,30.25,West,275,0.0,0.0,77,0.00,,---,0.00,0.00,VWS V14.01,2013-01-05 23:49:00,
2013-01-05 18:50:00,29.0,22.7,30.26,West,275,0.0,0.0,77,0.00,,---,0.00,0.00,VWS V14.01,2013-01-05 23:50:00,
2013-01-05 18:52:00,28.9,22.9,30.26,West,275,0.0,0.0,78,0.00,,---,0.00,0.00,VWS V14.01,2013-01-05 23:52:00,
2013-01-05 18:54:00,28.9,22.6,30.26,West,275,0.0,0.0,77,0.00,,---,0.00,0.00,VWS V14.01,2013-01-05 23:54:00,
2013-01-05 18:55:00,28.9,22.6,30.26,West,275,0.0,0.0,77,0.00,,---,0.00,0.00,VWS V14.01,2013-01-05 23:55:00,
2013-01-05 18:57:00,28.9,22.6,30.25,West,275,0.0,0.0,77,0.00,,---,0.00,0.00,VWS V14.01,2013-01-05 23:57:00,
2013-01-05 18:59:00,28.9,22.6,30.25,West,275,0.0,0.0,77,0.00,,---,0.00,0.00,VWS V14.01,2013-01-05 23:59:00,
2013-01-05 19:00:00,28.8,22.5,30.25,West,275,0.0,0.0,77,0.00,,---,0.00,0.00,VWS V14.01,2013-01-06 00:00:00,
2013-01-05 19:02:00,28.8,22.5,30.25,West,275,0.0,0.0,77,0.00,,---,0.00,0.00,VWS V14.01,2013-01-06 00:02:00,
2013-01-05 19:04:00,28.8,22.5,30.25,West,275,0.0,0.0,77,0.00,,---,0.00,0.00,VWS V14.01,2013-01-06 00:04:00,
2013-01-05 19:05:00,28.8,22.5,30.26,West,275,0.0,0.0,77,0.00,,---,0.00,0.00,VWS V14.01,2013-01-06 00:05:00,
2013-01-05 19:07:00,28.7,22.1,30.25,West,275,0.0,0.0,76,0.00,,---,0.00,0.00,VWS V14.01,2013-01-06 00:07:00,
2013-01-05 19:08:00,28.8,22.2,30.25,West,275,0.0,0.0,76,0.00,,---,0.00,0.00,VWS V14.01,2013-01-06 00:08:00,
2013-01-05 19:09:00,28.7,22.1,30.25,West,275,0.0,0.0,76,0.00,,---,0.00,0.00,VWS V14.01,2013-01-06 00:09:00,
2013-01-05 19:11:00,28.7,22.4,30.25,West,275,0.0,0.0,77,0.00,,---,0.00,0.00,VWS V14.01,2013-01-06 00:11:00,
2013-01-05 19:12:00,28.7,22.4,30.25,West,275,0.0,0.0,77,0.00,,---,0.00,0.00,VWS V14.01,2013-01-06 00:12:00,
2013-01-05 19:13:00,28.7,22.4,30.25,West,275,0.0,0.0,77,0.00,,---,0.00,0.00,VWS V14.01,2013-01-06 00:13:00,
2013-01-05 19:14:00,28.7,22.4,30.25,West,275,0.0,0.0,77,0.00,,---,0.00,0.00,VWS V14.01,2013-01-06 00:14:00,
2013-01-05 19:16:00,28.6,22.3,30.25,West,275,0.0,0.0,77,0.00,,---,0.00,0.00,VWS V14.01,2013-01-06 00:16:00,
2013-01-05 19:18:00,28.6,22.3,30.25,West,275,0.0,0.0,77,0.00,,---,0.00,0.00,VWS V14.01,2013-01-06 00:18:00,
2013-01-05 19:19:00,28.5,22.2,30.25,West,275,0.0,0.0,77,0.00,,---,0.00,0.00,VWS V14.01,2013-01-06 00:19:00,
2013-01-05 19:21:00,28.5,22.2,30.25,West,275,0.0,0.0,77,0.00,,---,0.00,0.00,VWS V14.01,2013-01-06 00:21:00,
2013-01-05 19:23:00,28.5,22.2,30.25,West,275,0.0,0.0,77,0.00,,---,0.00,0.00,VWS V14.01,2013-01-06 00:23:00,
2013-01-05 19:24:00,28.5,21.9,30.25,West,275,0.0,0.0,76,0.00,,---,0.00,0.00,VWS V14.01,2013-01-06 00:24:00,
2013-01-05 19:26:00,28.5,21.9,30.26,West,275,0.0,0.0,76,0.00,,---,0.00,0.00,VWS V14.01,2013-01-06 00:26:00,
2013-01-05 19:28:00,28.4,21.8,30.26,West,275,0.0,0.0,76,0.00,,---,0.00,0.00,VWS V14.01,2013-01-06 00:28:00,
2013-01-05 19:29:00,28.4,21.8,30.26,West,275,0.0,0.0,76,0.00,,---,0.00,0.00,VWS V14.01,2013-01-06 00:29:00,
2013-01-05 19:31:00,28.4,21.8,30.25,West,275,0.0,0.0,76,0.00,,---,0.00,0.00,VWS V14.01,2013-01-06 00:31:00,
2013-01-05 19:33:00,28.4,21.8,30.25,West,275,0.0,0.0,76,0.00,,---,0.00,0.00,VWS V14.01,2013-01-06 00:33:00,
2013-01-05 19:34:00,28.4,22.1,30.25,West,275,0.0,0.0,77,0.00,,---,0.00,0.00,VWS V14.01,2013-01-06 00:34:00,
2013-01-05 19:36:00,28.3,22.0,30.25,West,275,0.0,0.0,77,0.00,,---,0.00,0.00,VWS V14.01,2013-01-06 00:36:00,
2013-01-05 19:38:00,28.3,22.0,30.24,West,275,0.0,0.0,77,0.00,,---,0.00,0.00,VWS V14.01,2013-01-06 00:38:00,
2013-01-05 19:40:00,28.3,22.0,30.25,West,275,0.0,0.0,77,0.00,,---,0.00,0.00,VWS V14.01,2013-01-06 00:40:00,
2013-01-05 19:41:00,28.2,21.9,30.24,West,275,0.0,0.0,77,0.00,,---,0.00,0.00,VWS V14.01,2013-01-06 00:41:00,
2013-01-05 19:43:00,28.2,21.6,30.24,West,275,0.0,0.0,76,0.00,,---,0.00,0.00,VWS V14.01,2013-01-06 00:43:00,
2013-01-05 19:45:00,28.2,21.9,30.24,West,275,0.0,0.0,77,0.00,,---,0.00,0.00,VWS V14.01,2013-01-06 00:45:00,
2013-01-05 19:46:00,28.1,21.8,30.25,West,275,0.0,0.0,77,0.00,,---,0.00,0.00,VWS V14.01,2013-01-06 00:46:00,
2013-01-05 19:48:00,28.1,21.8,30.25,West,275,0.0,0.0,77,0.00,,---,0.00,0.00,VWS V14.01,2013-01-06 00:48:00,
2013-01-05 19:50:00,28.1,21.8,30.25,West,275,0.0,0.0,77,0.00,,---,0.00,0.00,VWS V14.01,2013-01-06 00:50:00,
2013-01-05 19:51:00,28.0,21.7,30.25,West,275,0.0,0.0,77,0.00,,---,0.00,0.00,VWS V14.01,2013-01-06 00:51:00,
2013-01-05 19:53:00,28.0,22.0,30.24,West,275,0.0,0.0,78,0.00,,---,0.00,0.00,VWS V14.01,2013-01-06 00:53:00,
2013-01-05 19:55:00,28.0,22.0,30.24,West,275,0.0,0.0,78,0.00,,---,0.00,0.00,VWS V14.01,2013-01-06 00:55:00,
2013-01-05 19:57:00,27.9,21.6,30.25,West,275,0.0,0.0,77,0.00,,---,0.00,0.00,VWS V14.01,2013-01-06 00:57:00,
2013-01-05 19:58:00,27.9,21.9,30.25,West,275,0.0,0.0,78,0.00,,---,0.00,0.00,VWS V14.01,2013-01-06 00:58:00,
2013-01-05 20:00:00,27.9,21.9,30.25,West,275,0.0,0.0,78,0.00,,---,0.00,0.00,VWS V14.01,2013-01-06 01:00:00,
2013-01-05 20:02:00,27.9,21.9,30.24,West,275,0.0,0.0,78,0.00,,---,0.00,0.00,VWS V14.01,2013-01-06 01:02:00,
2013-01-05 20:03:00,27.8,21.9,30.23,West,275,0.0,0.0,78,0.00,,---,0.00,0.00,VWS V14.01,2013-01-06 01:03:00,
2013-01-05 20:05:00,27.8,21.5,30.24,West,275,0.0,0.0,77,0.00,,---,0.00,0.00,VWS V14.01,2013-01-06 01:05:00,
2013-01-05 20:07:00,27.8,21.9,30.24,SW,236,0.0,0.0,78,0.00,,---,0.00,0.00,VWS V14.01,2013-01-06 01:07:00,
2013-01-05 20:09:00,27.8,21.9,30.24,SW,236,0.0,0.0,78,0.00,,---,0.00,0.00,VWS V14.01,2013-01-06 01:09:00,
2013-01-05 20:10:00,27.8,21.9,30.25,SW,236,0.0,0.0,78,0.00,,---,0.00,0.00,VWS V14.01,2013-01-06 01:10:00,
2013-01-05 20:12:00,27.8,22.1,30.24,SW,236,0.0,0.0,79,0.00,,---,0.00,0.00,VWS V14.01,2013-01-06 01:12:00,
2013-01-05 20:14:00,27.7,21.8,30.24,SW,236,0.0,0.0,78,0.00,,---,0.00,0.00,VWS V14.01,2013-01-06 01:14:00,
2013-01-05 20:15:00,27.7,21.8,30.23,WSW,238,0.0,0.0,78,0.00,,---,0.00,0.00,VWS V14.01,2013-01-06 01:15:00,
2013-01-05 20:17:00,27.7,21.8,30.24,WSW,238,0.0,0.0,78,0.00,,---,0.00,0.00,VWS V14.01,2013-01-06 01:17:00,
2013-01-05 20:19:00,27.7,22.0,30.25,WSW,238,0.0,0.0,79,0.00,,---,0.00,0.00,VWS V14.01,2013-01-06 01:19:00,
2013-01-05 20:20:00,27.7,22.0,30.24,WSW,238,0.0,0.0,79,0.00,,---,0.00,0.00,VWS V14.01,2013-01-06 01:20:00,
2013-01-05 20:22:00,27.6,22.0,30.24,WSW,238,0.0,0.0,79,0.00,,---,0.00,0.00,VWS V14.01,2013-01-06 01:22:00,
2013-01-05 20:24:00,27.6,21.6,30.23,WSW,238,0.0,0.0,78,0.00,,---,0.00,0.00,VWS V14.01,2013-01-06 01:24:00,
2013-01-05 20:25:00,27.6,21.6,30.23,WSW,238,0.0,0.0,78,0.00,,---,0.00,0.00,VWS V14.01,2013-01-06 01:25:00,
2013-01-05 20:27:00,27.6,21.6,30.23,WSW,238,0.0,0.0,78,0.00,,---,0.00,0.00,VWS V14.01,2013-01-06 01:27:00,
2013-01-05 20:29:00,27.5,21.5,30.23,WSW,238,0.0,0.0,78,0.00,,---,0.00,0.00,VWS V14.01,2013-01-06 01:29:00,
2013-01-05 20:30:00,27.5,21.5,30.23,WSW,238,0.0,0.0,78,0.00,,---,0.00,0.00,VWS V14.01,2013-01-06 01:30:00,
2013-01-05 20:32:00,27.5,21.5,30.23,WSW,238,0.0,0.0,78,0.00,,---,0.00,0.00,VWS V14.01,2013-01-06 01:32:00,
2013-01-05 20:34:00,27.5,21.5,30.23,WSW,238,0.0,0.0,78,0.00,,---,0.00,0.00,VWS V14.01,2013-01-06 01:34:00,
2013-01-05 20:36:00,27.5,21.5,30.23,WSW,238,0.0,0.0,78,0.00,,---,0.00,0.00,VWS V14.01,2013-01-06 01:36:00,
2013-01-05 20:37:00,27.4,21.5,30.23,WSW,238,0.0,0.0,78,0.00,,---,0.00,0.00,VWS V14.01,2013-01-06 01:37:00,
2013-01-05 20:39:00,27.4,21.8,30.24,WSW,238,0.0,0.0,79,0.00,,---,0.00,0.00,VWS V14.01,2013-01-06 01:39:00,
2013-01-05 20:41:00,27.4,21.8,30.24,WSW,238,0.0,0.0,79,0.00,,---,0.00,0.00,VWS V14.01,2013-01-06 01:41:00,
2013-01-05 20:42:00,27.4,21.5,30.24,WSW,238,0.0,0.0,78,0.00,,---,0.00,0.00,VWS V14.01,2013-01-06 01:42:00,
2013-01-05 20:44:00,27.3,21.7,30.24,WSW,238,0.0,0.0,79,0.00,,---,0.00,0.00,VWS V14.01,2013-01-06 01:44:00,
2013-01-05 20:46:00,27.3,21.7,30.24,WSW,238,0.0,0.0,79,0.00,,---,0.00,0.00,VWS V14.01,2013-01-06 01:46:00,
2013-01-05 20:47:00,27.2,21.6,30.24,WSW,238,0.0,0.0,79,0.00,,---,0.00,0.00,VWS V14.01,2013-01-06 01:47:00,
2013-01-05 20:49:00,27.2,21.6,30.23,WSW,238,0.0,0.0,79,0.00,,---,0.00,0.00,VWS V14.01,2013-01-06 01:49:00,
2013-01-05 20:51:00,27.2,21.6,30.23,WSW,238,0.0,0.0,79,0.00,,---,0.00,0.00,VWS V14.01,2013-01-06 01:51:00,
2013-01-05 20:52:00,27.1,21.5,30.23,WSW,238,0.0,0.0,79,0.00,,---,0.00,0.00,VWS V14.01,2013-01-06 01:52:00,
2013-01-05 20:54:00,27.1,21.5,30.24,WSW,238,0.0,0.0,79,0.00,,---,0.00,0.00,VWS V14.01,2013-01-06 01:54:00,
2013-01-05 20:56:00,27.1,21.5,30.24,WSW,238,0.0,0.0,79,0.00,,---,0.00,0.00,VWS V14.01,2013-01-06 01:56:00,
2013-01-05 20:58:00,27.1,21.5,30.24,WSW,238,0.0,0.0,79,0.00,,---,0.00,0.00,VWS V14.01,2013-01-06 01:58:00,
2013-01-05 20:59:00,27.1,21.8,30.23,WSW,238,0.0,1.0,80,0.00,,---,0.00,0.00,VWS V14.01,2013-01-06 01:59:00,
2013-01-05 21:00:00,27.1,21.8,30.23,WSW,238,0.0,1.0,80,0.00,,---,0.00,0.00,VWS V14.01,2013-01-06 02:00:00,
2013-01-05 21:01:00,27.1,21.8,30.23,WSW,238,0.0,0.0,80,0.00,,---,0.00,0.00,VWS V14.01,2013-01-06 02:01:00,
2013-01-05 21:03:00,27.0,21.7,30.23,WSW,238,0.0,0.0,80,0.00,,---,0.00,0.00,VWS V14.01,2013-01-06 02:03:00,
2013-01-05 21:04:00,27.0,21.4,30.23,WSW,238,0.0,0.0,79,0.00,,---,0.00,0.00,VWS V14.01,2013-01-06 02:04:00,
2013-01-05 21:05:00,27.0,21.4,30.23,WSW,238,0.0,0.0,79,0.00,,---,0.00,0.00,VWS V14.01,2013-01-06 02:05:00,
2013-01-05 21:06:00,27.0,21.4,30.23,WSW,238,0.0,0.0,79,0.00,,---,0.00,0.00,VWS V14.01,2013-01-06 02:06:00,
2013-01-05 21:08:00,26.9,21.3,30.22,WSW,238,0.0,0.0,79,0.00,,---,0.00,0.00,VWS V14.01,2013-01-06 02:08:00,
2013-01-05 21:10:00,26.9,21.3,30.22,WSW,238,0.0,0.0,79,0.00,,---,0.00,0.00,VWS V14.01,2013-01-06 02:10:00,
2013-01-05 21:11:00,26.9,21.3,30.23,WSW,238,0.0,0.0,79,0.00,,---,0.00,0.00,VWS V14.01,2013-01-06 02:11:00,
2013-01-05 21:13:00,26.8,21.2,30.23,WSW,238,0.0,0.0,79,0.00,,---,0.00,0.00,VWS V14.01,2013-01-06 02:13:00,
2013-01-05 21:15:00,26.8,21.2,30.23,WSW,238,0.0,0.0,79,0.00,,---,0.00,0.00,VWS V14.01,2013-01-06 02:15:00,
2013-01-05 21:16:00,26.8,21.5,30.23,WSW,238,0.0,0.0,80,0.00,,---,0.00,0.00,VWS V14.01,2013-01-06 02:16:00,
2013-01-05 21:18:00,26.7,21.4,30.23,WSW,238,0.0,0.0,80,0.00,,---,0.00,0.00,VWS V14.01,2013-01-06 02:18:00,
2013-01-05 21:20:00,26.7,21.4,30.22,WSW,240,0.0,0.0,80,0.00,,---,0.00,0.00,VWS V14.01,2013-01-06 02:20:00,
2013-01-05 21:21:00,26.7,21.4,30.22,WSW,240,0.0,0.0,80,0.00,,---,0.00,0.00,VWS V14.01,2013-01-06 02:21:00,
2013-01-05 21:23:00,26.7,21.4,30.22,WSW,240,0.0,0.0,80,0.00,,---,0.00,0.00,VWS V14.01,2013-01-06 02:23:00,
2013-01-05 21:25:00,26.7,21.4,30.22,WSW,240,0.0,0.0,80,0.00,,---,0.00,0.00,VWS V14.01,2013-01-06 02:25:00,
2013-01-05 21:26:00,26.6,21.3,30.22,WSW,240,0.0,0.0,80,0.00,,---,0.00,0.00,VWS V14.01,2013-01-06 02:26:00,
2013-01-05 21:28:00,26.6,21.3,30.22,WSW,240,0.0,0.0,80,0.00,,---,0.00,0.00,VWS V14.01,2013-01-06 02:28:00,
2013-01-05 21:30:00,26.6,21.3,30.22,WSW,240,0.0,0.0,80,0.00,,---,0.00,0.00,VWS V14.01,2013-01-06 02:30:00,
2013-01-05 21:31:00,26.6,21.3,30.22,WSW,240,0.0,0.0,80,0.00,,---,0.00,0.00,VWS V14.01,2013-01-06 02:31:00,
2013-01-05 21:33:00,26.6,21.3,30.23,WSW,240,0.0,0.0,80,0.00,,---,0.00,0.00,VWS V14.01,2013-01-06 02:33:00,
2013-01-05 21:35:00,26.5,21.2,30.23,WSW,240,0.0,0.0,80,0.00,,---,0.00,0.00,VWS V14.01,2013-01-06 02:35:00,
2013-01-05 21:37:00,26.5,21.2,30.22,WSW,240,0.0,0.0,80,0.00,,---,0.00,0.00,VWS V14.01,2013-01-06 02:37:00,
2013-01-05 21:38:00,26.5,21.2,30.23,WSW,240,0.0,0.0,80,0.00,,---,0.00,0.00,VWS V14.01,2013-01-06 02:38:00,
2013-01-05 21:40:00,26.5,21.2,30.23,WSW,240,0.0,0.0,80,0.00,,---,0.00,0.00,VWS V14.01,2013-01-06 02:40:00,
2013-01-05 21:42:00,26.5,21.5,30.23,WSW,240,0.0,0.0,81,0.00,,---,0.00,0.00,VWS V14.01,2013-01-06 02:42:00,
2013-01-05 21:43:00,26.5,21.5,30.23,WSW,240,0.0,0.0,81,0.00,,---,0.00,0.00,VWS V14.01,2013-01-06 02:43:00,
2013-01-05 21:45:00,26.5,21.5,30.23,WSW,240,0.0,0.0,81,0.00,,---,0.00,0.00,VWS V14.01,2013-01-06 02:45:00,
2013-01-05 21:47:00,26.4,21.4,30.22,WSW,240,0.0,0.0,81,0.00,,---,0.00,0.00,VWS V14.01,2013-01-06 02:47:00,
2013-01-05 21:49:00,26.4,21.4,30.22,WSW,240,0.0,0.0,81,0.00,,---,0.00,0.00,VWS V14.01,2013-01-06 02:49:00,
2013-01-05 21:50:00,26.4,21.4,30.22,WSW,240,0.0,0.0,81,0.00,,---,0.00,0.00,VWS V14.01,2013-01-06 02:50:00,
2013-01-05 21:52:00,26.4,21.4,30.22,WSW,240,0.0,0.0,81,0.00,,---,0.00,0.00,VWS V14.01,2013-01-06 02:52:00,
2013-01-05 21:54:00,26.3,21.3,30.22,WSW,240,0.0,0.0,81,0.00,,---,0.00,0.00,VWS V14.01,2013-01-06 02:54:00,
2013-01-05 21:55:00,26.3,21.3,30.22,WSW,240,0.0,0.0,81,0.00,,---,0.00,0.00,VWS V14.01,2013-01-06 02:55:00,
2013-01-05 21:57:00,26.3,21.3,30.23,WSW,240,0.0,0.0,81,0.00,,---,0.00,0.00,VWS V14.01,2013-01-06 02:57:00,
2013-01-05 21:59:00,26.3,21.3,30.22,WSW,240,0.0,0.0,81,0.00,,---,0.00,0.00,VWS V14.01,2013-01-06 02:59:00,
2013-01-05 22:00:00,26.3,21.3,30.22,WSW,240,0.0,0.0,81,0.00,,---,0.00,0.00,VWS V14.01,2013-01-06 03:00:00,
2013-01-05 22:02:00,26.2,21.2,30.23,WSW,240,0.0,0.0,81,0.00,,---,0.00,0.00,VWS V14.01,2013-01-06 03:02:00,
2013-01-05 22:04:00,26.2,21.2,30.22,WSW,240,0.0,0.0,81,0.00,,---,0.00,0.00,VWS V14.01,2013-01-06 03:04:00,
2013-01-05 22:05:00,26.2,21.2,30.23,WSW,240,0.0,0.0,81,0.00,,---,0.00,0.00,VWS V14.01,2013-01-06 03:05:00,
2013-01-05 22:07:00,26.2,21.2,30.22,WSW,240,0.0,0.0,81,0.00,,---,0.00,0.00,VWS V14.01,2013-01-06 03:07:00,
2013-01-05 22:09:00,26.1,21.1,30.22,WSW,240,0.0,0.0,81,0.00,,---,0.00,0.00,VWS V14.01,2013-01-06 03:09:00,
2013-01-05 22:11:00,26.1,21.1,30.22,WSW,240,0.0,0.0,81,0.00,,---,0.00,0.00,VWS V14.01,2013-01-06 03:11:00,
2013-01-05 22:12:00,26.1,21.1,30.21,WSW,240,0.0,0.0,81,0.00,,---,0.00,0.00,VWS V14.01,2013-01-06 03:12:00,
2013-01-05 22:14:00,26.0,21.0,30.21,WSW,257,0.0,0.0,81,0.00,,---,0.00,0.00,VWS V14.01,2013-01-06 03:14:00,
2013-01-05 22:16:00,26.0,21.3,30.20,WSW,257,0.0,1.0,82,0.00,,---,0.00,0.00,VWS V14.01,2013-01-06 03:16:00,
2013-01-05 22:18:00,26.0,21.3,30.21,WSW,257,0.0,1.0,82,0.00,,---,0.00,0.00,VWS V14.01,2013-01-06 03:18:00,
2013-01-05 22:19:00,26.0,21.3,30.21,WSW,257,0.0,1.0,82,0.00,,---,0.00,0.00,VWS V14.01,2013-01-06 03:19:00,
2013-01-05 22:21:00,25.9,21.2,30.21,WSW,257,0.0,1.0,82,0.00,,---,0.00,0.00,VWS V14.01,2013-01-06 03:21:00,
2013-01-05 22:23:00,25.9,21.2,30.21,WSW,257,0.0,0.0,82,0.00,,---,0.00,0.00,VWS V14.01,2013-01-06 03:23:00,
2013-01-05 22:25:00,25.9,21.5,30.21,WSW,257,0.0,0.0,83,0.00,,---,0.00,0.00,VWS V14.01,2013-01-06 03:25:00,
2013-01-05 22:26:00,25.9,21.5,30.21,WSW,257,0.0,0.0,83,0.00,,---,0.00,0.00,VWS V14.01,2013-01-06 03:26:00,
2013-01-05 22:28:00,25.9,21.5,30.22,WSW,257,0.0,0.0,83,0.00,,---,0.00,0.00,VWS V14.01,2013-01-06 03:28:00,
2013-01-05 22:30:00,25.9,21.2,30.21,WSW,257,0.0,0.0,82,0.00,,---,0.00,0.00,VWS V14.01,2013-01-06 03:30:00,
2013-01-05 22:31:00,25.9,21.2,30.22,WSW,257,0.0,0.0,82,0.00,,---,0.00,0.00,VWS V14.01,2013-01-06 03:31:00,
2013-01-05 22:33:00,25.9,21.2,30.22,WSW,257,0.0,0.0,82,0.00,,---,0.00,0.00,VWS V14.01,2013-01-06 03:33:00,
2013-01-05 22:35:00,25.9,21.5,30.22,WSW,257,0.0,0.0,83,0.00,,---,0.00,0.00,VWS V14.01,2013-01-06 03:35:00,
2013-01-05 22:36:00,25.9,21.5,30.21,WSW,257,0.0,0.0,83,0.00,,---,0.00,0.00,VWS V14.01,2013-01-06 03:36:00,
2013-01-05 22:38:00,25.9,21.5,30.21,WSW,257,0.0,0.0,83,0.00,,---,0.00,0.00,VWS V14.01,2013-01-06 03:38:00,
2013-01-05 22:40:00,25.9,21.5,30.21,WSW,257,0.0,0.0,83,0.00,,---,0.00,0.00,VWS V14.01,2013-01-06 03:40:00,
2013-01-05 22:41:00,26.0,21.6,30.22,WSW,257,0.0,0.0,83,0.00,,---,0.00,0.00,VWS V14.01,2013-01-06 03:41:00,
2013-01-05 22:43:00,26.0,21.8,30.22,WSW,257,0.0,0.0,84,0.00,,---,0.00,0.00,VWS V14.01,2013-01-06 03:43:00,
2013-01-05 22:45:00,26.0,21.8,30.21,WSW,257,0.0,0.0,84,0.00,,---,0.00,0.00,VWS V14.01,2013-01-06 03:45:00,
2013-01-05 22:46:00,26.0,21.8,30.22,WSW,257,0.0,0.0,84,0.00,,---,0.00,0.00,VWS V14.01,2013-01-06 03:46:00,
2013-01-05 22:48:00,26.1,21.9,30.21,WSW,257,0.0,0.0,84,0.00,,---,0.00,0.00,VWS V14.01,2013-01-06 03:48:00,
2013-01-05 22:50:00,26.1,21.9,30.21,WSW,257,0.0,0.0,84,0.00,,---,0.00,0.00,VWS V14.01,2013-01-06 03:50:00,
2013-01-05 22:51:00,26.1,21.9,30.21,WSW,257,0.0,0.0,84,0.00,,---,0.00,0.00,VWS V14.01,2013-01-06 03:51:00,
2013-01-05 22:52:00,26.1,21.9,30.21,WSW,257,0.0,0.0,84,0.00,,---,0.00,0.00,VWS V14.01,2013-01-06 03:52:00,
2013-01-05 22:53:00,26.2,22.0,30.20,WSW,257,0.0,0.0,84,0.00,,---,0.00,0.00,VWS V14.01,2013-01-06 03:53:00,
2013-01-05 22:56:00,26.2,22.0,30.20,WSW,257,0.0,0.0,84,0.00,,---,0.00,0.00,VWS V14.01,2013-01-06 03:56:00,
2013-01-05 22:57:00,26.2,22.0,30.20,WSW,257,0.0,0.0,84,0.00,,---,0.00,0.00,VWS V14.01,2013-01-06 03:57:00,
2013-01-05 22:58:00,26.2,22.0,30.20,WSW,257,0.0,0.0,84,0.00,,---,0.00,0.00,VWS V14.01,2013-01-06 03:58:00,
2013-01-05 23:01:00,26.2,22.0,30.19,WSW,257,0.0,0.0,84,0.00,,---,0.00,0.00,VWS V14.01,2013-01-06 04:01:00,
2013-01-05 23:02:00,26.2,22.0,30.19,WSW,257,0.0,0.0,84,0.00,,---,0.00,0.00,VWS V14.01,2013-01-06 04:02:00,
2013-01-05 23:03:00,26.2,22.0,30.20,WSW,257,0.0,0.0,84,0.00,,---,0.00,0.00,VWS V14.01,2013-01-06 04:03:00,
2013-01-05 23:06:00,26.2,21.8,30.20,WSW,257,0.0,0.0,83,0.00,,---,0.00,0.00,VWS V14.01,2013-01-06 04:06:00,
2013-01-05 23:07:00,26.3,21.9,30.20,WSW,257,0.0,0.0,83,0.00,,---,0.00,0.00,VWS V14.01,2013-01-06 04:07:00,
2013-01-05 23:08:00,26.3,22.1,30.20,WSW,257,0.0,0.0,84,0.00,,---,0.00,0.00,VWS V14.01,2013-01-06 04:08:00,
2013-01-05 23:11:00,26.3,21.9,30.20,WSW,257,0.0,0.0,83,0.00,,---,0.00,0.00,VWS V14.01,2013-01-06 04:11:00,
2013-01-05 23:12:00,26.3,21.9,30.21,WSW,257,0.0,0.0,83,0.00,,---,0.00,0.00,VWS V14.01,2013-01-06 04:12:00,
2013-01-05 23:13:00,26.4,22.2,30.21,WSW,257,0.0,0.0,84,0.00,,---,0.00,0.00,VWS V14.01,2013-01-06 04:13:00,
2013-01-05 23:16:00,26.4,22.2,30.21,WSW,257,0.0,0.0,84,0.00,,---,0.00,0.00,VWS V14.01,2013-01-06 04:16:00,
2013-01-05 23:17:00,26.4,22.2,30.21,WSW,257,0.0,0.0,84,0.00,,---,0.00,0.00,VWS V14.01,2013-01-06 04:17:00,
2013-01-05 23:19:00,26.5,22.6,30.21,WSW,257,0.0,0.0,85,0.00,,---,0.00,0.00,VWS V14.01,2013-01-06 04:19:00,
2013-01-05 23:21:00,26.6,22.7,30.21,WSW,257,0.0,0.0,85,0.00,,---,0.00,0.00,VWS V14.01,2013-01-06 04:21:00,
2013-01-05 23:22:00,26.6,22.7,30.21,WSW,257,0.0,0.0,85,0.00,,---,0.00,0.00,VWS V14.01,2013-01-06 04:22:00,
2013-01-05 23:24:00,26.6,22.7,30.21,WSW,257,0.0,0.0,85,0.00,,---,0.00,0.00,VWS V14.01,2013-01-06 04:24:00,
2013-01-05 23:26:00,26.6,22.7,30.20,WSW,257,0.0,0.0,85,0.00,,---,0.00,0.00,VWS V14.01,2013-01-06 04:26:00,
2013-01-05 23:27:00,26.6,22.7,30.20,WSW,257,0.0,0.0,85,0.00,,---,0.00,0.00,VWS V14.01,2013-01-06 04:27:00,
2013-01-05 23:29:00,26.6,22.4,30.20,WSW,257,0.0,0.0,84,0.00,,---,0.00,0.00,VWS V14.01,2013-01-06 04:29:00,
2013-01-05 23:31:00,26.7,22.5,30.20,WSW,257,0.0,0.0,84,0.00,,---,0.00,0.00,VWS V14.01,2013-01-06 04:31:00,
2013-01-05 23:32:00,26.7,22.5,30.20,WSW,257,0.0,0.0,84,0.00,,---,0.00,0.00,VWS V14.01,2013-01-06 04:32:00,
2013-01-05 23:34:00,26.7,22.5,30.20,WSW,257,0.0,0.0,84,0.00,,---,0.00,0.00,VWS V14.01,2013-01-06 04:34:00,
2013-01-05 23:36:00,26.7,22.5,30.20,WSW,257,0.0,0.0,84,0.00,,---,0.00,0.00,VWS V14.01,2013-01-06 04:36:00,
2013-01-05 23:37:00,26.7,22.5,30.20,WSW,257,0.0,0.0,84,0.00,,---,0.00,0.00,VWS V14.01,2013-01-06 04:37:00,
2013-01-05 23:39:00,26.7,22.5,30.20,WSW,257,0.0,0.0,84,0.00,,---,0.00,0.00,VWS V14.01,2013-01-06 04:39:00,
2013-01-05 23:41:00,26.7,22.5,30.20,WSW,257,0.0,0.0,84,0.00,,---,0.00,0.00,VWS V14.01,2013-01-06 04:41:00,
2013-01-05 23:42:00,26.8,22.6,30.20,WSW,257,0.0,0.0,84,0.00,,---,0.00,0.00,VWS V14.01,2013-01-06 04:42:00,
2013-01-05 23:44:00,26.8,22.9,30.19,WSW,257,0.0,0.0,85,0.00,,---,0.00,0.00,VWS V14.01,2013-01-06 04:44:00,
2013-01-05 23:46:00,26.8,22.9,30.19,WSW,257,0.0,0.0,85,0.00,,---,0.00,0.00,VWS V14.01,2013-01-06 04:46:00,
2013-01-05 23:47:00,26.9,23.3,30.19,WSW,257,0.0,0.0,86,0.00,,---,0.00,0.00,VWS V14.01,2013-01-06 04:47:00,
2013-01-05 23:48:00,26.9,23.0,30.19,WSW,257,0.0,0.0,85,0.00,,---,0.00,0.00,VWS V14.01,2013-01-06 04:48:00,
2013-01-05 23:49:00,26.9,23.0,30.19,WSW,257,0.0,0.0,85,0.00,,---,0.00,0.00,VWS V14.01,2013-01-06 04:49:00,
2013-01-05 23:51:00,26.9,22.7,30.19,WSW,257,0.0,0.0,84,0.00,,---,0.00,0.00,VWS V14.01,2013-01-06 04:51:00,
2013-01-05 23:52:00,26.9,23.0,30.19,WSW,257,0.0,0.0,85,0.00,,---,0.00,0.00,VWS V14.01,2013-01-06 04:52:00,
2013-01-05 23:53:00,26.9,23.0,30.19,WSW,257,0.0,0.0,85,0.00,,---,0.00,0.00,VWS V14.01,2013-01-06 04:53:00,
2013-01-05 23:54:00,26.9,22.7,30.19,WSW,257,0.0,0.0,84,0.00,,---,0.00,0.00,VWS V14.01,2013-01-06 04:54:00,
2013-01-05 23:56:00,27.0,22.8,30.20,WSW,257,0.0,0.0,84,0.00,,---,0.00,0.00,VWS V14.01,2013-01-06 04:56:00,
2013-01-05 23:57:00,27.0,22.8,30.20,WSW,257,0.0,0.0,84,0.00,,---,0.00,0.00,VWS V14.01,2013-01-06 04:57:00,
2013-01-05 23:58:00,27.0,23.1,30.19,WSW,257,0.0,0.0,85,0.00,,---,0.00,0.00,VWS V14.01,2013-01-06 04:58:00,